GEFSNGP_prec_meanprecacc_246.txt.gz
Total_Precipitation_Accumulation
0.12 0.20 0.23 0.29 0.24 0.17 0.15 0.16 0.25 0.32 0.49 0.63 0.60 0.71 0.99 0.85 0.74 0.66 0.65 0.55 0.52 0.60 0.74 0.81 0.83 0.81 0.90 1.05 1.18 1.30 1.42 1.56 1.81 2.08 1.94 1.70 1.66 1.64 1.59 1.68 1.80 2.09 2.21 2.28
0.12 0.17 0.21 0.25 0.26 0.20 0.18 0.17 0.16 0.26 0.47 0.56 0.65 0.68 0.78 0.79 0.81 0.79 0.73 0.71 0.71 0.85 0.87 0.89 0.93 0.88 0.86 0.88 0.98 1.17 1.32 1.45 1.63 1.76 1.63 1.47 1.37 1.39 1.43 1.52 1.70 1.87 2.01 2.12
0.22 0.20 0.22 0.28 0.26 0.23 0.21 0.27 0.27 0.35 0.47 0.53 0.73 0.69 0.70 0.85 0.92 0.85 0.71 0.76 0.80 0.84 0.94 0.88 0.86 0.86 0.85 0.87 1.02 1.24 1.30 1.34 1.48 1.60 1.61 1.51 1.34 1.34 1.41 1.51 1.65 1.74 1.78 1.84
0.36 0.39 0.46 0.36 0.33 0.30 0.29 0.34 0.36 0.39 0.45 0.55 0.74 0.72 0.60 0.63 0.69 0.77 0.81 0.88 0.85 0.84 0.88 0.82 0.78 0.85 0.86 0.85 1.06 1.25 1.31 1.40 1.58 1.75 1.76 1.69 1.62 1.58 1.66 1.74 1.72 1.71 1.75 1.80
0.56 0.57 0.49 0.48 0.48 0.49 0.53 0.69 0.63 0.54 0.52 0.57 0.58 0.67 0.73 0.63 0.57 0.65 0.73 0.91 0.94 0.87 0.92 0.96 1.00 1.04 1.03 1.02 1.20 1.42 1.52 1.57 1.65 1.80 1.86 1.87 1.96 2.01 2.07 2.06 1.93 1.88 1.95 1.98
0.65 0.74 0.74 0.71 0.61 0.56 0.70 1.13 1.02 0.78 0.66 0.63 0.64 0.96 1.11 0.90 0.74 0.72 0.72 0.86 1.02 1.00 0.88 0.94 1.01 1.11 1.28 1.34 1.39 1.46 1.61 1.76 1.80 1.96 2.08 2.07 2.17 2.31 2.42 2.45 2.35 2.37 2.26 2.10
0.75 0.84 0.89 0.83 0.63 0.65 1.20 1.56 1.19 0.99 0.90 0.83 0.91 0.95 1.02 0.89 0.80 0.80 0.75 0.80 0.92 1.11 0.97 0.95 1.06 1.22 1.43 1.54 1.67 1.70 1.76 1.83 1.91 2.11 2.29 2.44 2.62 2.76 2.76 2.72 2.74 2.66 2.40 2.26
0.94 1.15 1.22 0.82 0.79 1.08 1.36 1.20 1.19 1.22 1.28 1.23 1.07 0.87 0.86 0.90 0.79 0.77 0.75 0.76 0.77 0.84 0.92 0.96 1.07 1.36 1.54 1.57 1.61 1.76 1.88 2.00 2.16 2.27 2.33 2.45 2.77 2.87 2.86 2.80 2.67 2.49 2.33 2.13
1.15 1.32 1.11 0.88 0.98 1.02 1.14 1.24 1.27 1.31 1.34 1.23 1.06 0.93 0.93 0.94 0.84 0.76 0.72 0.75 0.80 0.82 0.93 1.05 1.20 1.45 1.75 1.81 1.75 1.75 1.89 2.08 2.26 2.40 2.58 2.76 2.88 2.81 2.71 2.65 2.55 2.39 2.25 2.05
1.31 1.32 1.07 1.03 1.06 1.03 1.09 1.15 1.25 1.19 1.13 1.12 1.07 0.95 0.93 0.88 0.75 0.71 0.73 0.76 0.80 0.87 0.97 1.12 1.32 1.50 1.77 1.74 1.69 1.73 1.75 1.90 2.06 2.14 2.21 2.34 2.52 2.45 2.31 2.28 2.31 2.27 2.22 2.12
1.50 1.50 1.40 1.34 1.32 1.22 1.08 1.03 0.99 1.01 1.00 1.05 1.09 1.06 0.91 0.88 0.79 0.69 0.68 0.73 0.79 0.94 1.14 1.24 1.35 1.46 1.50 1.50 1.55 1.59 1.58 1.66 1.72 1.75 1.84 1.95 2.03 2.10 2.05 2.03 1.98 1.98 1.96 1.94
1.73 1.57 1.50 1.67 1.53 1.38 1.16 1.06 0.99 0.95 0.97 1.02 1.06 1.12 0.95 0.86 0.84 0.75 0.69 0.72 0.87 1.00 1.13 1.26 1.46 1.65 1.67 1.61 1.66 1.70 1.63 1.59 1.57 1.60 1.65 1.66 1.74 1.75 1.74 1.62 1.51 1.41 1.35 1.32
1.45 1.39 1.38 1.43 1.37 1.29 1.20 1.20 1.24 1.18 1.09 1.03 1.04 1.03 0.93 0.85 0.85 0.78 0.77 0.80 0.90 0.94 1.01 1.18 1.35 1.50 1.64 1.77 1.83 1.85 1.75 1.64 1.57 1.50 1.48 1.50 1.55 1.62 1.63 1.50 1.31 1.16 1.06 0.99
1.46 1.40 1.44 1.39 1.34 1.24 1.18 1.23 1.28 1.20 1.17 1.11 1.09 1.01 0.92 0.87 0.87 0.88 0.83 0.88 0.98 1.01 1.05 1.18 1.30 1.38 1.47 1.70 1.86 1.91 1.86 1.75 1.59 1.48 1.42 1.42 1.45 1.49 1.56 1.62 1.51 1.32 1.10 0.90
1.73 1.60 1.50 1.47 1.46 1.39 1.21 1.17 1.19 1.13 1.06 1.08 1.07 1.04 0.97 0.94 0.91 0.92 0.89 0.88 0.97 1.07 1.12 1.22 1.29 1.33 1.44 1.57 1.63 1.66 1.64 1.57 1.47 1.41 1.41 1.39 1.41 1.41 1.39 1.44 1.43 1.38 1.23 1.05
1.69 1.57 1.41 1.39 1.45 1.45 1.34 1.23 1.19 1.16 1.08 0.99 0.99 0.95 0.95 0.97 0.95 0.94 0.92 0.93 1.03 1.09 1.10 1.21 1.30 1.31 1.41 1.56 1.60 1.61 1.61 1.57 1.44 1.39 1.43 1.43 1.41 1.41 1.38 1.43 1.43 1.41 1.30 1.12
1.60 1.56 1.40 1.23 1.23 1.27 1.25 1.17 1.09 1.08 1.06 1.01 0.97 0.94 0.90 0.92 1.01 1.03 0.98 0.93 1.00 1.11 1.15 1.29 1.35 1.33 1.42 1.55 1.67 1.63 1.57 1.52 1.40 1.34 1.35 1.42 1.43 1.40 1.34 1.35 1.34 1.37 1.27 1.07
1.34 1.34 1.28 1.18 1.10 1.09 1.15 1.12 1.07 1.06 1.09 1.02 0.96 0.98 1.02 1.07 1.17 1.24 1.21 1.16 1.16 1.16 1.15 1.24 1.30 1.34 1.40 1.48 1.56 1.58 1.56 1.49 1.34 1.18 1.16 1.22 1.27 1.29 1.28 1.25 1.25 1.28 1.20 1.00
1.16 1.26 1.23 1.16 1.13 1.05 1.14 1.14 1.12 1.11 1.05 0.99 0.96 0.98 1.03 1.15 1.27 1.34 1.41 1.43 1.41 1.33 1.24 1.19 1.30 1.29 1.38 1.47 1.50 1.53 1.48 1.38 1.24 1.06 1.02 1.11 1.17 1.24 1.24 1.18 1.18 1.17 1.07 0.94
1.22 1.25 1.20 1.13 1.16 1.19 1.21 1.18 1.16 1.17 1.06 0.98 1.01 1.07 1.14 1.20 1.31 1.39 1.41 1.37 1.32 1.30 1.23 1.14 1.11 1.12 1.20 1.30 1.39 1.40 1.35 1.31 1.25 1.06 1.02 1.15 1.24 1.31 1.25 1.13 1.09 1.06 0.97 0.95
1.20 1.20 1.13 1.03 1.00 1.00 1.01 1.03 1.05 1.11 1.14 1.13 1.24 1.35 1.39 1.32 1.35 1.49 1.60 1.48 1.23 1.20 1.16 1.11 1.02 1.04 1.06 1.18 1.26 1.29 1.28 1.28 1.31 1.19 1.09 1.14 1.19 1.22 1.18 1.09 1.04 0.98 0.93 0.95
1.13 1.14 1.13 1.07 1.01 0.92 0.83 0.84 0.95 1.06 1.15 1.24 1.29 1.41 1.49 1.50 1.53 1.54 1.46 1.45 1.31 1.29 1.19 1.05 0.95 0.94 0.95 0.99 1.09 1.17 1.19 1.22 1.29 1.25 1.19 1.21 1.26 1.26 1.23 1.15 1.09 1.01 0.95 0.93
1.07 1.10 1.08 1.04 1.08 1.01 0.90 0.89 0.88 0.96 1.04 1.11 1.18 1.37 1.49 1.50 1.58 1.77 1.59 1.25 1.15 1.21 1.16 1.06 1.00 0.95 0.89 0.82 0.93 1.04 1.07 1.13 1.14 1.11 1.08 1.06 1.06 1.08 1.06 0.99 0.94 0.92 0.93 0.92
1.08 1.04 1.08 1.08 1.09 1.00 0.93 0.92 0.95 0.99 0.96 0.98 1.06 1.24 1.44 1.57 1.52 1.45 1.47 1.36 1.17 1.08 1.00 1.00 0.96 0.95 0.94 0.85 0.89 0.96 1.02 1.07 1.03 0.98 0.96 0.95 0.96 0.97 0.93 0.91 0.89 0.88 0.88 0.89
1.09 1.03 1.02 1.07 1.14 1.12 1.04 1.03 1.09 1.09 1.04 1.06 1.06 1.09 1.18 1.36 1.50 1.36 1.19 1.13 1.06 0.94 0.89 0.90 0.86 0.85 0.84 0.82 0.81 0.88 0.97 1.03 1.02 0.95 0.88 0.90 0.92 0.89 0.82 0.78 0.80 0.84 0.87 0.87
1.13 1.10 1.08 1.08 1.09 1.09 1.09 1.18 1.31 1.26 1.26 1.32 1.23 1.16 1.16 1.18 1.25 1.29 1.19 1.07 0.98 0.89 0.80 0.83 0.82 0.81 0.81 0.86 0.83 0.83 0.89 0.98 1.03 1.00 0.91 0.91 0.86 0.81 0.80 0.78 0.73 0.73 0.77 0.78
1.19 1.11 1.09 1.12 1.12 1.10 1.18 1.30 1.42 1.43 1.49 1.57 1.51 1.33 1.23 1.13 1.15 1.20 1.19 1.14 1.03 0.92 0.86 0.83 0.80 0.80 0.82 0.81 0.75 0.73 0.79 0.88 0.91 0.92 0.95 0.97 0.96 0.91 0.85 0.80 0.73 0.68 0.69 0.68

GEFSNGP_prec_meanprecacc_252.txt.gz
Total_Precipitation_Accumulation
0.13 0.20 0.24 0.29 0.24 0.17 0.16 0.16 0.25 0.33 0.49 0.63 0.60 0.71 0.99 0.85 0.74 0.66 0.65 0.56 0.52 0.61 0.74 0.81 0.85 0.84 0.94 1.08 1.20 1.32 1.43 1.57 1.82 2.09 1.94 1.70 1.66 1.64 1.60 1.69 1.82 2.10 2.24 2.31
0.13 0.17 0.21 0.25 0.26 0.20 0.18 0.17 0.16 0.26 0.47 0.56 0.65 0.68 0.78 0.79 0.81 0.79 0.73 0.71 0.71 0.85 0.88 0.90 0.94 0.89 0.87 0.89 0.99 1.18 1.33 1.46 1.64 1.77 1.64 1.48 1.37 1.40 1.43 1.53 1.70 1.88 2.01 2.12
0.22 0.20 0.22 0.28 0.26 0.23 0.21 0.27 0.27 0.35 0.47 0.54 0.73 0.69 0.70 0.85 0.92 0.86 0.71 0.76 0.80 0.85 0.96 0.89 0.87 0.87 0.86 0.88 1.03 1.24 1.30 1.35 1.49 1.61 1.61 1.52 1.35 1.35 1.41 1.51 1.66 1.75 1.78 1.84
0.36 0.39 0.46 0.37 0.33 0.30 0.29 0.34 0.36 0.39 0.45 0.56 0.74 0.72 0.60 0.63 0.69 0.77 0.81 0.89 0.86 0.85 0.89 0.84 0.79 0.86 0.87 0.86 1.07 1.26 1.32 1.41 1.58 1.75 1.76 1.69 1.62 1.58 1.67 1.74 1.73 1.71 1.76 1.80
0.56 0.57 0.49 0.48 0.48 0.49 0.54 0.69 0.63 0.54 0.52 0.57 0.58 0.67 0.73 0.63 0.57 0.65 0.73 0.92 0.95 0.89 0.94 0.98 1.01 1.05 1.05 1.03 1.21 1.42 1.53 1.57 1.66 1.81 1.86 1.88 1.96 2.02 2.07 2.06 1.94 1.89 1.96 1.99
0.65 0.74 0.74 0.71 0.61 0.56 0.71 1.14 1.02 0.79 0.66 0.63 0.65 0.97 1.11 0.90 0.74 0.72 0.72 0.87 1.04 1.03 0.90 0.96 1.02 1.11 1.29 1.34 1.40 1.47 1.61 1.77 1.81 1.97 2.09 2.07 2.18 2.32 2.44 2.46 2.36 2.38 2.27 2.12
0.75 0.84 0.89 0.83 0.63 0.65 1.21 1.56 1.21 1.01 0.91 0.85 0.92 0.96 1.03 0.90 0.81 0.81 0.77 0.83 0.95 1.13 0.99 0.96 1.07 1.23 1.44 1.54 1.67 1.71 1.76 1.84 1.92 2.11 2.29 2.44 2.62 2.78 2.78 2.73 2.75 2.67 2.42 2.28
0.94 1.15 1.22 0.82 0.79 1.08 1.37 1.20 1.20 1.23 1.29 1.25 1.08 0.88 0.87 0.91 0.81 0.79 0.79 0.81 0.82 0.88 0.95 0.98 1.09 1.36 1.55 1.58 1.62 1.76 1.89 2.01 2.16 2.27 2.34 2.45 2.78 2.89 2.87 2.81 2.69 2.51 2.35 2.15
1.15 1.32 1.11 0.88 0.98 1.02 1.14 1.24 1.28 1.31 1.34 1.25 1.08 0.94 0.93 0.94 0.84 0.77 0.73 0.78 0.82 0.84 0.94 1.06 1.22 1.46 1.77 1.83 1.77 1.77 1.91 2.10 2.27 2.41 2.60 2.78 2.89 2.83 2.71 2.66 2.56 2.42 2.27 2.07
1.32 1.33 1.08 1.03 1.06 1.03 1.09 1.15 1.25 1.19 1.13 1.14 1.09 0.96 0.93 0.89 0.76 0.72 0.74 0.77 0.80 0.88 0.97 1.13 1.34 1.54 1.80 1.77 1.72 1.76 1.78 1.93 2.08 2.16 2.23 2.35 2.53 2.46 2.32 2.29 2.33 2.30 2.25 2.15
1.51 1.51 1.41 1.35 1.33 1.22 1.09 1.03 0.99 1.01 1.01 1.06 1.10 1.07 0.92 0.89 0.81 0.70 0.70 0.73 0.80 0.94 1.15 1.24 1.36 1.48 1.52 1.52 1.58 1.62 1.60 1.68 1.73 1.78 1.86 1.96 2.04 2.11 2.06 2.04 2.01 2.00 1.99 1.97
1.74 1.57 1.50 1.68 1.54 1.39 1.17 1.06 1.00 0.95 0.97 1.03 1.07 1.13 0.97 0.88 0.87 0.77 0.71 0.75 0.89 1.02 1.15 1.27 1.47 1.66 1.68 1.63 1.68 1.72 1.65 1.60 1.58 1.62 1.67 1.68 1.75 1.77 1.76 1.64 1.55 1.45 1.38 1.35
1.45 1.39 1.38 1.43 1.39 1.30 1.21 1.20 1.24 1.19 1.10 1.04 1.06 1.04 0.94 0.87 0.86 0.81 0.79 0.83 0.93 0.97 1.04 1.21 1.37 1.51 1.65 1.79 1.85 1.88 1.78 1.66 1.59 1.52 1.50 1.52 1.56 1.63 1.65 1.53 1.34 1.20 1.11 1.03
1.46 1.40 1.45 1.40 1.35 1.26 1.19 1.24 1.29 1.20 1.18 1.12 1.10 1.02 0.93 0.88 0.88 0.90 0.86 0.91 1.01 1.04 1.09 1.21 1.33 1.40 1.48 1.71 1.87 1.94 1.89 1.78 1.62 1.50 1.44 1.44 1.47 1.50 1.57 1.64 1.53 1.35 1.13 0.94
1.74 1.60 1.51 1.48 1.48 1.40 1.22 1.18 1.21 1.14 1.07 1.08 1.08 1.05 0.98 0.95 0.93 0.94 0.91 0.91 1.01 1.10 1.15 1.25 1.32 1.35 1.46 1.58 1.65 1.68 1.66 1.60 1.50 1.44 1.43 1.42 1.43 1.42 1.41 1.46 1.45 1.40 1.26 1.08
1.70 1.58 1.41 1.40 1.48 1.48 1.36 1.25 1.21 1.17 1.09 1.00 0.99 0.95 0.96 0.98 0.97 0.96 0.94 0.96 1.06 1.11 1.12 1.23 1.32 1.33 1.44 1.58 1.62 1.64 1.64 1.60 1.46 1.40 1.44 1.45 1.43 1.43 1.40 1.45 1.45 1.44 1.32 1.14
1.63 1.58 1.42 1.27 1.30 1.33 1.28 1.19 1.11 1.09 1.07 1.02 0.98 0.95 0.92 0.94 1.03 1.05 1.00 0.96 1.04 1.15 1.20 1.32 1.38 1.35 1.44 1.59 1.70 1.66 1.59 1.54 1.42 1.36 1.37 1.43 1.45 1.42 1.36 1.36 1.36 1.39 1.28 1.09
1.36 1.37 1.31 1.22 1.14 1.12 1.16 1.13 1.08 1.07 1.10 1.04 0.99 1.00 1.04 1.10 1.21 1.28 1.26 1.21 1.22 1.23 1.23 1.28 1.34 1.37 1.42 1.52 1.60 1.61 1.59 1.51 1.36 1.20 1.17 1.24 1.29 1.30 1.30 1.27 1.28 1.30 1.22 1.02
1.19 1.29 1.27 1.19 1.16 1.08 1.16 1.16 1.13 1.12 1.07 1.01 0.99 1.01 1.05 1.19 1.32 1.41 1.49 1.49 1.47 1.41 1.32 1.25 1.36 1.35 1.44 1.52 1.54 1.55 1.50 1.41 1.27 1.08 1.05 1.14 1.20 1.27 1.27 1.22 1.21 1.21 1.10 0.97
1.27 1.29 1.24 1.17 1.20 1.22 1.23 1.21 1.18 1.19 1.08 1.00 1.03 1.10 1.18 1.24 1.37 1.47 1.48 1.45 1.39 1.37 1.30 1.20 1.17 1.18 1.25 1.34 1.43 1.42 1.37 1.32 1.27 1.08 1.04 1.17 1.26 1.34 1.29 1.20 1.19 1.14 1.04 1.01
1.25 1.24 1.16 1.07 1.04 1.03 1.02 1.05 1.07 1.12 1.15 1.14 1.25 1.37 1.41 1.36 1.40 1.54 1.66 1.54 1.29 1.25 1.22 1.17 1.08 1.08 1.09 1.20 1.28 1.30 1.29 1.29 1.33 1.21 1.11 1.15 1.21 1.24 1.21 1.12 1.08 1.03 0.98 1.00
1.18 1.19 1.18 1.12 1.06 0.96 0.84 0.85 0.96 1.07 1.16 1.25 1.31 1.42 1.50 1.52 1.55 1.57 1.49 1.49 1.35 1.33 1.22 1.09 0.99 0.98 0.98 1.02 1.11 1.19 1.21 1.24 1.31 1.27 1.20 1.22 1.28 1.28 1.26 1.19 1.14 1.07 1.03 1.02
1.11 1.16 1.13 1.08 1.12 1.04 0.92 0.91 0.90 0.98 1.05 1.12 1.19 1.38 1.50 1.51 1.60 1.79 1.60 1.27 1.17 1.23 1.18 1.08 1.02 0.98 0.92 0.84 0.95 1.06 1.09 1.15 1.16 1.13 1.09 1.07 1.08 1.10 1.09 1.03 0.97 0.96 0.97 0.97
1.11 1.08 1.11 1.12 1.13 1.04 0.97 0.96 0.98 1.02 0.98 0.99 1.07 1.25 1.45 1.57 1.53 1.46 1.47 1.36 1.18 1.09 1.01 1.01 0.97 0.96 0.96 0.87 0.91 0.98 1.04 1.08 1.04 0.99 0.98 0.98 0.99 1.00 0.96 0.94 0.93 0.92 0.92 0.93
1.12 1.06 1.04 1.10 1.17 1.16 1.09 1.07 1.12 1.11 1.06 1.07 1.07 1.11 1.19 1.37 1.50 1.37 1.19 1.14 1.07 0.95 0.91 0.91 0.88 0.87 0.85 0.84 0.82 0.89 0.98 1.04 1.03 0.97 0.90 0.93 0.94 0.92 0.86 0.82 0.85 0.90 0.92 0.92
1.16 1.12 1.10 1.10 1.11 1.11 1.12 1.20 1.32 1.28 1.28 1.33 1.25 1.17 1.17 1.19 1.26 1.30 1.20 1.08 0.99 0.90 0.83 0.85 0.84 0.83 0.82 0.87 0.85 0.85 0.91 1.00 1.05 1.02 0.93 0.93 0.90 0.87 0.85 0.84 0.79 0.79 0.82 0.82
1.21 1.13 1.12 1.14 1.13 1.11 1.20 1.32 1.43 1.44 1.50 1.58 1.52 1.34 1.24 1.15 1.17 1.21 1.21 1.16 1.05 0.93 0.89 0.86 0.82 0.82 0.83 0.83 0.77 0.75 0.81 0.89 0.92 0.94 0.97 1.00 1.00 0.98 0.92 0.85 0.78 0.73 0.74 0.74

GEFSNGP_prec_meanprecacc_258.txt.gz
Total_Precipitation_Accumulation
0.15 0.21 0.24 0.29 0.24 0.17 0.16 0.16 0.26 0.34 0.50 0.63 0.61 0.71 0.99 0.85 0.74 0.66 0.65 0.56 0.53 0.61 0.75 0.81 0.85 0.85 0.94 1.08 1.20 1.32 1.43 1.57 1.82 2.09 1.95 1.71 1.67 1.65 1.61 1.70 1.83 2.13 2.27 2.35
0.14 0.19 0.22 0.25 0.26 0.20 0.18 0.17 0.16 0.27 0.47 0.56 0.65 0.69 0.79 0.79 0.81 0.79 0.73 0.71 0.71 0.86 0.90 0.91 0.95 0.90 0.88 0.89 0.99 1.18 1.33 1.46 1.64 1.77 1.64 1.48 1.38 1.40 1.44 1.54 1.71 1.89 2.03 2.15
0.23 0.21 0.24 0.29 0.27 0.23 0.21 0.27 0.27 0.36 0.48 0.54 0.75 0.70 0.70 0.85 0.92 0.86 0.72 0.77 0.81 0.86 0.98 0.91 0.89 0.88 0.86 0.88 1.03 1.25 1.31 1.35 1.49 1.61 1.61 1.52 1.35 1.35 1.42 1.52 1.66 1.76 1.79 1.86
0.38 0.42 0.48 0.38 0.34 0.30 0.29 0.35 0.36 0.40 0.46 0.56 0.74 0.73 0.60 0.63 0.69 0.78 0.82 0.89 0.87 0.86 0.91 0.86 0.80 0.88 0.88 0.86 1.07 1.27 1.33 1.42 1.59 1.76 1.77 1.69 1.63 1.59 1.67 1.75 1.74 1.72 1.77 1.82
0.58 0.59 0.51 0.49 0.48 0.49 0.55 0.70 0.63 0.55 0.52 0.57 0.58 0.67 0.74 0.64 0.57 0.67 0.78 0.94 0.98 0.92 0.98 1.01 1.03 1.06 1.06 1.04 1.22 1.44 1.55 1.59 1.66 1.81 1.87 1.89 1.97 2.03 2.08 2.08 1.95 1.91 1.98 2.01
0.66 0.75 0.74 0.72 0.62 0.57 0.72 1.15 1.03 0.79 0.66 0.63 0.65 0.98 1.12 0.91 0.75 0.74 0.74 0.89 1.08 1.08 0.93 0.98 1.04 1.13 1.31 1.36 1.42 1.49 1.63 1.79 1.83 1.98 2.10 2.08 2.19 2.33 2.46 2.49 2.38 2.40 2.29 2.14
0.75 0.84 0.90 0.83 0.63 0.66 1.22 1.58 1.22 1.01 0.92 0.85 0.93 0.97 1.04 0.91 0.82 0.82 0.78 0.85 0.96 1.16 1.02 0.98 1.10 1.25 1.46 1.56 1.69 1.72 1.78 1.87 1.94 2.12 2.30 2.45 2.64 2.81 2.82 2.76 2.77 2.69 2.44 2.30
0.94 1.15 1.22 0.82 0.80 1.09 1.38 1.21 1.21 1.25 1.30 1.25 1.08 0.88 0.88 0.92 0.82 0.80 0.80 0.82 0.83 0.90 0.96 1.00 1.11 1.39 1.58 1.60 1.64 1.78 1.91 2.03 2.19 2.30 2.36 2.48 2.82 2.93 2.90 2.84 2.72 2.54 2.38 2.17
1.17 1.34 1.12 0.89 0.98 1.03 1.15 1.24 1.29 1.32 1.35 1.25 1.08 0.94 0.94 0.95 0.85 0.77 0.74 0.79 0.83 0.85 0.96 1.08 1.24 1.49 1.78 1.84 1.79 1.78 1.92 2.11 2.29 2.43 2.63 2.81 2.94 2.88 2.77 2.71 2.60 2.45 2.30 2.11
1.34 1.34 1.08 1.03 1.06 1.03 1.09 1.15 1.25 1.20 1.14 1.15 1.10 0.96 0.93 0.90 0.77 0.73 0.75 0.78 0.82 0.90 1.00 1.15 1.36 1.55 1.82 1.78 1.73 1.78 1.80 1.95 2.10 2.18 2.26 2.39 2.57 2.50 2.36 2.33 2.37 2.35 2.29 2.18
1.53 1.53 1.42 1.35 1.33 1.23 1.09 1.03 0.99 1.01 1.01 1.07 1.11 1.08 0.92 0.89 0.82 0.72 0.72 0.75 0.82 0.96 1.17 1.26 1.38 1.49 1.53 1.53 1.60 1.64 1.62 1.70 1.74 1.79 1.88 1.98 2.06 2.13 2.09 2.07 2.04 2.04 2.02 1.99
1.79 1.59 1.52 1.69 1.55 1.41 1.18 1.07 1.00 0.96 0.98 1.04 1.09 1.16 0.99 0.89 0.88 0.79 0.73 0.76 0.91 1.04 1.16 1.28 1.48 1.66 1.68 1.63 1.69 1.73 1.66 1.61 1.59 1.63 1.68 1.69 1.77 1.79 1.79 1.67 1.57 1.47 1.40 1.37
1.52 1.42 1.41 1.45 1.40 1.32 1.23 1.21 1.25 1.20 1.11 1.04 1.06 1.06 0.96 0.89 0.88 0.83 0.83 0.87 0.97 1.01 1.06 1.21 1.37 1.52 1.66 1.79 1.86 1.89 1.79 1.67 1.60 1.52 1.50 1.53 1.58 1.66 1.68 1.56 1.37 1.21 1.12 1.04
1.51 1.42 1.46 1.41 1.36 1.28 1.22 1.26 1.30 1.21 1.18 1.12 1.11 1.04 0.95 0.89 0.89 0.91 0.88 0.95 1.05 1.08 1.12 1.23 1.35 1.42 1.50 1.72 1.88 1.95 1.89 1.78 1.62 1.51 1.45 1.45 1.48 1.51 1.59 1.66 1.55 1.36 1.14 0.95
1.74 1.60 1.51 1.48 1.48 1.41 1.24 1.21 1.23 1.15 1.08 1.09 1.10 1.08 1.00 0.97 0.94 0.95 0.93 0.93 1.04 1.13 1.19 1.28 1.35 1.38 1.48 1.60 1.67 1.70 1.67 1.61 1.51 1.46 1.44 1.43 1.44 1.43 1.41 1.46 1.46 1.41 1.27 1.10
1.70 1.58 1.42 1.41 1.49 1.50 1.38 1.28 1.25 1.21 1.11 1.02 1.02 0.99 0.98 0.99 0.99 0.98 0.96 0.98 1.09 1.14 1.16 1.27 1.36 1.37 1.47 1.61 1.65 1.67 1.66 1.63 1.49 1.43 1.47 1.47 1.45 1.44 1.41 1.46 1.47 1.45 1.34 1.15
1.64 1.58 1.43 1.28 1.32 1.35 1.31 1.22 1.16 1.16 1.12 1.05 1.01 0.97 0.94 0.96 1.06 1.07 1.02 0.98 1.06 1.18 1.22 1.35 1.40 1.37 1.47 1.62 1.73 1.69 1.64 1.58 1.47 1.39 1.41 1.47 1.48 1.45 1.39 1.39 1.39 1.42 1.31 1.13
1.38 1.38 1.32 1.23 1.15 1.13 1.18 1.15 1.09 1.09 1.12 1.07 1.03 1.03 1.06 1.12 1.23 1.30 1.27 1.22 1.23 1.25 1.24 1.30 1.35 1.38 1.44 1.55 1.63 1.64 1.62 1.55 1.39 1.23 1.22 1.29 1.33 1.34 1.34 1.32 1.32 1.34 1.27 1.07
1.21 1.33 1.30 1.20 1.17 1.10 1.18 1.17 1.15 1.13 1.08 1.03 1.02 1.04 1.07 1.20 1.33 1.43 1.51 1.52 1.50 1.44 1.34 1.28 1.37 1.36 1.46 1.56 1.59 1.58 1.53 1.44 1.30 1.12 1.08 1.19 1.25 1.31 1.31 1.27 1.27 1.26 1.15 1.00
1.28 1.34 1.29 1.21 1.22 1.24 1.25 1.23 1.19 1.20 1.09 1.01 1.06 1.12 1.20 1.27 1.39 1.49 1.52 1.49 1.43 1.41 1.34 1.23 1.18 1.19 1.28 1.41 1.51 1.48 1.42 1.37 1.32 1.15 1.09 1.22 1.31 1.38 1.34 1.25 1.24 1.19 1.08 1.04
1.27 1.27 1.19 1.10 1.07 1.05 1.04 1.06 1.09 1.14 1.18 1.17 1.29 1.40 1.45 1.40 1.44 1.58 1.70 1.58 1.34 1.30 1.26 1.23 1.14 1.13 1.14 1.27 1.37 1.37 1.35 1.34 1.37 1.27 1.19 1.22 1.26 1.29 1.25 1.15 1.11 1.06 1.01 1.04
1.22 1.23 1.21 1.14 1.08 0.98 0.87 0.88 0.99 1.08 1.18 1.29 1.36 1.46 1.54 1.56 1.59 1.59 1.52 1.52 1.39 1.39 1.31 1.23 1.17 1.12 1.09 1.12 1.18 1.25 1.27 1.29 1.37 1.32 1.26 1.29 1.34 1.34 1.31 1.23 1.18 1.11 1.06 1.05
1.15 1.21 1.17 1.12 1.16 1.07 0.96 0.95 0.93 1.00 1.07 1.15 1.24 1.43 1.55 1.55 1.63 1.81 1.62 1.29 1.20 1.27 1.25 1.22 1.19 1.12 1.03 0.92 1.01 1.12 1.16 1.21 1.24 1.20 1.14 1.12 1.13 1.15 1.13 1.06 1.02 1.00 1.00 1.00
1.15 1.14 1.17 1.17 1.18 1.09 1.02 1.01 1.03 1.06 1.01 1.02 1.10 1.29 1.50 1.62 1.57 1.48 1.49 1.38 1.21 1.12 1.04 1.05 1.03 1.01 1.01 0.92 0.99 1.08 1.13 1.19 1.15 1.07 1.05 1.04 1.06 1.05 1.01 0.99 0.98 0.96 0.96 0.96
1.17 1.13 1.12 1.15 1.23 1.22 1.15 1.12 1.16 1.15 1.10 1.11 1.09 1.13 1.24 1.43 1.55 1.40 1.22 1.15 1.09 0.98 0.92 0.93 0.90 0.89 0.89 0.90 0.89 0.96 1.07 1.15 1.13 1.04 0.97 0.99 1.00 0.97 0.90 0.87 0.90 0.95 0.96 0.94
1.20 1.19 1.17 1.16 1.16 1.17 1.17 1.25 1.37 1.32 1.32 1.37 1.28 1.20 1.20 1.22 1.27 1.31 1.22 1.11 1.01 0.93 0.84 0.87 0.87 0.85 0.84 0.90 0.88 0.89 0.95 1.05 1.09 1.06 0.97 0.97 0.94 0.90 0.89 0.87 0.83 0.83 0.86 0.86
1.26 1.19 1.17 1.18 1.17 1.14 1.22 1.34 1.46 1.48 1.53 1.61 1.56 1.38 1.26 1.16 1.18 1.22 1.22 1.18 1.08 0.96 0.92 0.88 0.84 0.84 0.85 0.86 0.80 0.78 0.84 0.93 0.96 0.98 1.00 1.03 1.03 1.00 0.94 0.88 0.81 0.76 0.77 0.77

GEFSNGP_prec_meanprecacc_264.txt.gz
Total_Precipitation_Accumulation
0.15 0.22 0.25 0.30 0.25 0.18 0.16 0.17 0.27 0.35 0.51 0.64 0.63 0.72 1.00 0.85 0.74 0.67 0.66 0.57 0.54 0.63 0.77 0.85 0.88 0.88 0.98 1.11 1.22 1.33 1.45 1.58 1.82 2.09 1.95 1.71 1.68 1.66 1.61 1.70 1.83 2.13 2.28 2.36
0.15 0.20 0.23 0.26 0.27 0.21 0.18 0.17 0.17 0.28 0.48 0.57 0.66 0.70 0.80 0.80 0.83 0.82 0.75 0.72 0.73 0.89 0.92 0.94 0.98 0.93 0.92 0.96 1.03 1.20 1.35 1.49 1.66 1.78 1.64 1.49 1.38 1.41 1.44 1.54 1.72 1.89 2.04 2.16
0.28 0.23 0.26 0.31 0.28 0.24 0.21 0.27 0.27 0.36 0.48 0.54 0.75 0.72 0.72 0.88 0.97 0.91 0.74 0.79 0.83 0.88 1.00 0.94 0.92 0.91 0.90 0.94 1.11 1.29 1.33 1.37 1.51 1.62 1.62 1.52 1.35 1.36 1.42 1.52 1.67 1.76 1.81 1.87
0.42 0.44 0.51 0.41 0.36 0.31 0.30 0.35 0.37 0.40 0.47 0.57 0.75 0.75 0.64 0.69 0.74 0.82 0.85 0.93 0.91 0.90 0.95 0.89 0.84 0.91 0.92 0.90 1.12 1.33 1.37 1.44 1.61 1.77 1.78 1.70 1.63 1.59 1.68 1.75 1.75 1.74 1.79 1.83
0.59 0.59 0.52 0.51 0.50 0.51 0.56 0.72 0.65 0.56 0.54 0.60 0.60 0.69 0.76 0.66 0.61 0.72 0.83 1.01 1.05 0.97 1.02 1.05 1.06 1.10 1.09 1.08 1.27 1.48 1.59 1.63 1.70 1.84 1.88 1.90 1.98 2.03 2.09 2.09 1.96 1.92 1.99 2.02
0.66 0.76 0.75 0.73 0.62 0.58 0.74 1.18 1.06 0.83 0.69 0.66 0.67 1.00 1.15 0.94 0.79 0.80 0.80 0.95 1.14 1.14 0.99 1.03 1.08 1.17 1.36 1.42 1.48 1.55 1.69 1.84 1.87 2.02 2.13 2.10 2.21 2.35 2.47 2.50 2.39 2.41 2.30 2.15
0.75 0.85 0.90 0.84 0.64 0.67 1.25 1.62 1.26 1.05 0.97 0.87 0.95 0.99 1.05 0.93 0.85 0.86 0.83 0.90 1.01 1.22 1.09 1.04 1.14 1.29 1.51 1.62 1.75 1.79 1.84 1.91 1.99 2.16 2.33 2.48 2.67 2.83 2.83 2.78 2.79 2.71 2.45 2.32
0.95 1.16 1.23 0.83 0.81 1.12 1.41 1.24 1.26 1.29 1.35 1.27 1.10 0.89 0.89 0.93 0.83 0.83 0.83 0.85 0.86 0.94 1.03 1.06 1.15 1.43 1.62 1.64 1.69 1.83 1.97 2.08 2.23 2.34 2.39 2.51 2.84 2.95 2.93 2.88 2.75 2.57 2.41 2.21
1.18 1.35 1.13 0.90 1.00 1.06 1.19 1.27 1.32 1.37 1.41 1.28 1.09 0.96 0.95 0.96 0.86 0.79 0.77 0.82 0.86 0.89 0.99 1.12 1.27 1.51 1.82 1.89 1.83 1.83 1.97 2.16 2.33 2.45 2.65 2.84 2.96 2.90 2.79 2.74 2.63 2.48 2.35 2.15
1.36 1.36 1.10 1.05 1.08 1.05 1.11 1.17 1.28 1.22 1.17 1.17 1.12 0.97 0.95 0.91 0.79 0.76 0.78 0.81 0.85 0.93 1.03 1.19 1.39 1.58 1.84 1.81 1.76 1.81 1.84 2.00 2.14 2.22 2.29 2.41 2.58 2.51 2.37 2.35 2.39 2.38 2.34 2.22
1.56 1.56 1.44 1.38 1.35 1.24 1.10 1.05 1.01 1.04 1.04 1.11 1.14 1.09 0.94 0.91 0.84 0.74 0.75 0.79 0.85 0.99 1.19 1.28 1.39 1.50 1.55 1.54 1.61 1.65 1.65 1.73 1.78 1.83 1.92 2.01 2.08 2.14 2.09 2.08 2.05 2.05 2.05 2.03
1.82 1.62 1.55 1.73 1.58 1.43 1.23 1.13 1.07 1.03 1.03 1.09 1.15 1.20 1.01 0.90 0.89 0.80 0.76 0.83 0.97 1.08 1.20 1.31 1.49 1.67 1.69 1.63 1.69 1.73 1.68 1.63 1.61 1.66 1.72 1.73 1.79 1.81 1.80 1.69 1.60 1.51 1.44 1.40
1.57 1.47 1.46 1.49 1.44 1.35 1.27 1.27 1.32 1.26 1.14 1.08 1.10 1.10 0.99 0.92 0.92 0.86 0.85 0.92 1.05 1.07 1.11 1.25 1.40 1.53 1.67 1.80 1.86 1.90 1.80 1.68 1.61 1.54 1.55 1.58 1.61 1.68 1.71 1.60 1.42 1.27 1.15 1.06
1.57 1.48 1.51 1.44 1.39 1.31 1.24 1.29 1.35 1.26 1.21 1.14 1.13 1.08 1.03 0.95 0.96 1.01 0.96 1.01 1.14 1.18 1.19 1.29 1.39 1.45 1.53 1.75 1.91 1.97 1.91 1.79 1.64 1.53 1.48 1.49 1.52 1.55 1.63 1.72 1.60 1.39 1.17 0.97
1.81 1.65 1.55 1.52 1.51 1.43 1.26 1.23 1.25 1.18 1.10 1.11 1.12 1.12 1.09 1.09 1.07 1.08 1.05 1.02 1.11 1.21 1.26 1.35 1.40 1.42 1.53 1.64 1.71 1.74 1.70 1.63 1.54 1.48 1.47 1.47 1.50 1.50 1.48 1.52 1.51 1.45 1.30 1.12
1.75 1.62 1.45 1.44 1.52 1.52 1.41 1.32 1.29 1.25 1.17 1.10 1.11 1.10 1.12 1.17 1.12 1.08 1.05 1.06 1.15 1.19 1.19 1.29 1.40 1.42 1.52 1.66 1.71 1.73 1.71 1.67 1.53 1.47 1.51 1.53 1.52 1.52 1.48 1.54 1.53 1.50 1.38 1.19
1.69 1.63 1.47 1.33 1.35 1.40 1.35 1.25 1.20 1.22 1.21 1.16 1.09 1.03 1.00 1.03 1.12 1.12 1.06 1.02 1.10 1.22 1.25 1.37 1.43 1.42 1.53 1.69 1.80 1.77 1.71 1.66 1.56 1.47 1.46 1.53 1.55 1.51 1.46 1.48 1.47 1.50 1.39 1.20
1.41 1.41 1.37 1.30 1.22 1.17 1.21 1.17 1.12 1.13 1.18 1.15 1.08 1.05 1.08 1.14 1.25 1.32 1.29 1.24 1.26 1.27 1.27 1.32 1.37 1.41 1.49 1.61 1.69 1.68 1.68 1.62 1.49 1.32 1.30 1.35 1.39 1.41 1.42 1.41 1.44 1.48 1.41 1.21
1.23 1.35 1.34 1.26 1.27 1.15 1.20 1.20 1.17 1.16 1.12 1.10 1.08 1.06 1.09 1.22 1.35 1.45 1.53 1.53 1.51 1.45 1.37 1.30 1.40 1.39 1.48 1.58 1.60 1.60 1.55 1.47 1.34 1.17 1.15 1.26 1.33 1.38 1.38 1.34 1.33 1.34 1.25 1.13
1.31 1.36 1.33 1.26 1.29 1.30 1.27 1.25 1.22 1.24 1.13 1.06 1.11 1.16 1.22 1.29 1.41 1.51 1.54 1.52 1.46 1.43 1.37 1.27 1.22 1.22 1.30 1.43 1.53 1.50 1.44 1.39 1.34 1.18 1.13 1.27 1.37 1.45 1.40 1.31 1.29 1.25 1.14 1.10
1.31 1.31 1.23 1.14 1.11 1.10 1.08 1.09 1.12 1.17 1.23 1.22 1.34 1.44 1.48 1.44 1.47 1.62 1.74 1.62 1.38 1.36 1.32 1.29 1.21 1.19 1.18 1.30 1.40 1.40 1.38 1.37 1.40 1.30 1.23 1.26 1.31 1.35 1.31 1.22 1.17 1.13 1.10 1.12
1.28 1.29 1.26 1.19 1.11 1.02 0.93 0.92 1.02 1.12 1.22 1.34 1.43 1.54 1.59 1.61 1.65 1.65 1.58 1.59 1.47 1.49 1.42 1.32 1.26 1.21 1.18 1.19 1.24 1.30 1.31 1.33 1.41 1.38 1.32 1.36 1.41 1.42 1.40 1.32 1.27 1.20 1.16 1.15
1.23 1.29 1.25 1.18 1.19 1.11 1.01 0.99 0.97 1.04 1.11 1.18 1.30 1.53 1.63 1.62 1.69 1.87 1.68 1.35 1.28 1.36 1.36 1.34 1.28 1.19 1.09 0.98 1.07 1.18 1.21 1.27 1.30 1.26 1.21 1.20 1.22 1.25 1.24 1.16 1.12 1.12 1.13 1.11
1.27 1.26 1.27 1.23 1.22 1.13 1.07 1.05 1.07 1.11 1.06 1.07 1.17 1.37 1.58 1.69 1.63 1.55 1.56 1.45 1.27 1.19 1.12 1.14 1.12 1.08 1.06 0.98 1.03 1.12 1.17 1.24 1.20 1.12 1.10 1.11 1.14 1.15 1.12 1.10 1.08 1.06 1.08 1.10
1.28 1.25 1.21 1.22 1.27 1.27 1.19 1.17 1.21 1.20 1.16 1.17 1.16 1.21 1.33 1.51 1.61 1.46 1.27 1.21 1.14 1.02 0.96 0.97 0.93 0.94 0.94 0.94 0.95 1.02 1.14 1.23 1.21 1.10 1.03 1.05 1.06 1.05 0.99 0.97 1.01 1.07 1.10 1.09
1.27 1.27 1.26 1.25 1.23 1.22 1.23 1.31 1.43 1.39 1.38 1.44 1.33 1.24 1.28 1.33 1.35 1.37 1.27 1.15 1.06 0.97 0.88 0.91 0.89 0.87 0.86 0.93 0.93 0.95 1.04 1.16 1.20 1.16 1.06 1.06 1.02 0.99 0.98 0.96 0.91 0.92 0.95 0.95
1.33 1.30 1.29 1.27 1.24 1.20 1.28 1.39 1.51 1.54 1.58 1.65 1.60 1.41 1.31 1.24 1.23 1.26 1.25 1.20 1.10 1.00 0.95 0.91 0.86 0.84 0.86 0.87 0.82 0.80 0.87 0.97 1.03 1.08 1.12 1.14 1.14 1.11 1.04 0.98 0.90 0.85 0.85 0.86

GEFSNGP_prec_meanprecacc_270.txt.gz
Total_Precipitation_Accumulation
0.15 0.22 0.25 0.30 0.25 0.19 0.16 0.17 0.27 0.35 0.51 0.64 0.63 0.72 1.00 0.86 0.75 0.67 0.66 0.57 0.54 0.63 0.77 0.86 0.89 0.89 0.98 1.11 1.24 1.36 1.48 1.61 1.85 2.12 1.97 1.73 1.69 1.66 1.61 1.70 1.83 2.13 2.28 2.36
0.15 0.20 0.23 0.26 0.27 0.21 0.18 0.17 0.17 0.28 0.48 0.57 0.67 0.70 0.80 0.80 0.83 0.83 0.76 0.73 0.74 0.90 0.93 0.95 0.99 0.94 0.94 0.98 1.07 1.25 1.39 1.52 1.70 1.82 1.67 1.51 1.39 1.42 1.45 1.54 1.72 1.90 2.04 2.17
0.28 0.23 0.27 0.31 0.28 0.24 0.21 0.27 0.27 0.36 0.48 0.54 0.75 0.72 0.72 0.88 0.98 0.91 0.75 0.80 0.85 0.90 1.02 0.96 0.93 0.92 0.93 0.99 1.17 1.35 1.38 1.41 1.55 1.66 1.65 1.54 1.37 1.37 1.43 1.53 1.67 1.77 1.82 1.88
0.42 0.44 0.52 0.41 0.37 0.33 0.30 0.36 0.37 0.40 0.47 0.57 0.75 0.75 0.64 0.69 0.75 0.83 0.86 0.94 0.93 0.92 0.96 0.91 0.85 0.94 0.95 0.95 1.18 1.39 1.43 1.50 1.66 1.81 1.81 1.73 1.66 1.62 1.71 1.78 1.77 1.77 1.81 1.85
0.60 0.59 0.53 0.52 0.51 0.51 0.57 0.72 0.65 0.56 0.54 0.60 0.60 0.70 0.77 0.67 0.62 0.74 0.84 1.02 1.06 0.98 1.04 1.08 1.10 1.14 1.15 1.14 1.32 1.53 1.64 1.68 1.75 1.89 1.93 1.95 2.04 2.09 2.14 2.14 2.01 1.97 2.04 2.06
0.67 0.76 0.76 0.73 0.63 0.58 0.75 1.19 1.06 0.83 0.70 0.66 0.68 1.01 1.15 0.95 0.80 0.82 0.82 0.98 1.16 1.16 1.02 1.06 1.12 1.22 1.41 1.48 1.55 1.62 1.77 1.91 1.92 2.06 2.18 2.17 2.27 2.41 2.54 2.57 2.45 2.46 2.35 2.19
0.75 0.85 0.91 0.85 0.64 0.68 1.25 1.62 1.26 1.06 0.98 0.88 0.96 1.00 1.06 0.94 0.86 0.87 0.85 0.91 1.02 1.25 1.14 1.11 1.21 1.37 1.57 1.68 1.82 1.85 1.91 1.98 2.05 2.21 2.38 2.52 2.71 2.89 2.90 2.83 2.83 2.74 2.47 2.34
0.95 1.16 1.25 0.84 0.81 1.12 1.41 1.25 1.26 1.30 1.36 1.28 1.11 0.91 0.90 0.95 0.85 0.84 0.84 0.86 0.88 0.96 1.09 1.17 1.25 1.52 1.69 1.72 1.77 1.91 2.03 2.14 2.28 2.38 2.42 2.55 2.89 3.01 2.99 2.94 2.79 2.60 2.44 2.23
1.19 1.36 1.14 0.91 1.01 1.08 1.20 1.28 1.33 1.40 1.43 1.31 1.11 0.97 0.97 0.98 0.88 0.81 0.78 0.84 0.89 0.91 1.02 1.18 1.35 1.60 1.90 1.98 1.93 1.92 2.03 2.20 2.36 2.49 2.69 2.89 3.01 2.95 2.85 2.80 2.68 2.52 2.37 2.17
1.37 1.38 1.11 1.06 1.09 1.06 1.12 1.18 1.29 1.25 1.22 1.21 1.15 1.01 0.99 0.94 0.81 0.78 0.80 0.84 0.88 0.97 1.07 1.24 1.47 1.69 1.99 1.96 1.88 1.93 1.95 2.08 2.19 2.27 2.33 2.46 2.65 2.58 2.44 2.41 2.44 2.41 2.36 2.25
1.58 1.57 1.45 1.39 1.37 1.26 1.12 1.06 1.03 1.07 1.08 1.14 1.17 1.13 0.97 0.94 0.87 0.77 0.79 0.84 0.92 1.06 1.26 1.34 1.47 1.62 1.69 1.69 1.72 1.75 1.75 1.81 1.84 1.88 1.96 2.04 2.11 2.18 2.13 2.12 2.08 2.07 2.07 2.05
1.84 1.63 1.56 1.73 1.59 1.45 1.25 1.16 1.10 1.06 1.06 1.13 1.17 1.22 1.04 0.94 0.93 0.83 0.79 0.89 1.05 1.16 1.26 1.38 1.60 1.76 1.75 1.69 1.74 1.78 1.72 1.66 1.64 1.68 1.74 1.74 1.81 1.83 1.83 1.73 1.63 1.54 1.47 1.42
1.58 1.48 1.47 1.50 1.45 1.37 1.29 1.29 1.35 1.28 1.17 1.10 1.12 1.12 1.01 0.95 0.95 0.89 0.88 0.96 1.10 1.12 1.15 1.30 1.45 1.57 1.71 1.84 1.91 1.94 1.83 1.71 1.63 1.55 1.56 1.58 1.62 1.70 1.73 1.63 1.46 1.30 1.18 1.10
1.59 1.50 1.52 1.45 1.40 1.32 1.26 1.31 1.38 1.29 1.23 1.16 1.14 1.11 1.05 0.97 0.99 1.03 0.99 1.04 1.17 1.20 1.22 1.32 1.43 1.49 1.56 1.78 1.94 2.00 1.94 1.82 1.65 1.55 1.50 1.51 1.53 1.56 1.66 1.74 1.63 1.43 1.21 1.02
1.85 1.69 1.58 1.54 1.52 1.45 1.28 1.26 1.30 1.23 1.13 1.13 1.15 1.15 1.12 1.12 1.09 1.11 1.08 1.06 1.16 1.26 1.29 1.37 1.43 1.46 1.57 1.69 1.75 1.77 1.74 1.66 1.56 1.50 1.50 1.49 1.52 1.52 1.49 1.55 1.54 1.49 1.34 1.16
1.81 1.67 1.49 1.48 1.55 1.55 1.44 1.35 1.33 1.30 1.22 1.15 1.15 1.15 1.17 1.21 1.15 1.11 1.08 1.09 1.19 1.23 1.22 1.31 1.41 1.44 1.56 1.73 1.77 1.79 1.76 1.71 1.56 1.49 1.54 1.58 1.57 1.56 1.53 1.59 1.58 1.54 1.40 1.21
1.72 1.67 1.52 1.37 1.39 1.43 1.38 1.28 1.22 1.25 1.25 1.19 1.13 1.07 1.04 1.06 1.15 1.15 1.08 1.03 1.11 1.23 1.26 1.38 1.44 1.43 1.55 1.72 1.87 1.83 1.75 1.69 1.58 1.50 1.52 1.60 1.62 1.60 1.55 1.56 1.54 1.54 1.42 1.25
1.45 1.45 1.40 1.34 1.24 1.20 1.24 1.20 1.15 1.16 1.21 1.18 1.11 1.09 1.11 1.16 1.28 1.35 1.32 1.27 1.28 1.29 1.28 1.33 1.38 1.42 1.49 1.62 1.70 1.70 1.69 1.64 1.51 1.35 1.34 1.41 1.46 1.49 1.50 1.50 1.51 1.53 1.45 1.26
1.27 1.40 1.37 1.29 1.30 1.18 1.23 1.22 1.18 1.18 1.15 1.15 1.13 1.10 1.12 1.23 1.36 1.45 1.54 1.55 1.53 1.47 1.38 1.32 1.41 1.40 1.49 1.59 1.61 1.60 1.56 1.49 1.36 1.19 1.17 1.30 1.37 1.43 1.43 1.39 1.39 1.39 1.29 1.17
1.36 1.40 1.38 1.30 1.37 1.38 1.29 1.26 1.23 1.25 1.15 1.09 1.14 1.19 1.26 1.31 1.43 1.53 1.55 1.52 1.46 1.43 1.37 1.28 1.23 1.22 1.30 1.43 1.54 1.51 1.45 1.40 1.35 1.19 1.14 1.28 1.38 1.47 1.43 1.35 1.34 1.30 1.20 1.15
1.35 1.34 1.26 1.17 1.18 1.17 1.12 1.11 1.14 1.19 1.25 1.25 1.36 1.47 1.51 1.47 1.50 1.64 1.76 1.64 1.39 1.37 1.34 1.31 1.22 1.21 1.19 1.31 1.41 1.41 1.38 1.37 1.41 1.31 1.24 1.27 1.33 1.37 1.34 1.26 1.23 1.18 1.15 1.18
1.29 1.31 1.28 1.23 1.16 1.06 0.95 0.94 1.04 1.14 1.25 1.37 1.47 1.57 1.63 1.65 1.68 1.68 1.61 1.62 1.50 1.53 1.46 1.35 1.30 1.25 1.22 1.22 1.26 1.32 1.33 1.34 1.43 1.39 1.33 1.37 1.44 1.46 1.44 1.37 1.31 1.23 1.20 1.20
1.26 1.31 1.27 1.22 1.25 1.15 1.03 1.01 0.99 1.06 1.14 1.22 1.34 1.57 1.67 1.65 1.72 1.90 1.70 1.38 1.31 1.40 1.41 1.39 1.34 1.25 1.16 1.05 1.12 1.23 1.26 1.31 1.33 1.29 1.24 1.23 1.25 1.30 1.29 1.20 1.16 1.16 1.15 1.14
1.30 1.28 1.30 1.28 1.29 1.19 1.10 1.08 1.08 1.12 1.09 1.10 1.20 1.40 1.61 1.72 1.66 1.58 1.58 1.48 1.30 1.22 1.15 1.19 1.18 1.14 1.13 1.05 1.10 1.18 1.23 1.29 1.24 1.16 1.14 1.15 1.17 1.18 1.15 1.13 1.11 1.10 1.11 1.14
1.32 1.31 1.28 1.29 1.35 1.34 1.26 1.22 1.25 1.24 1.20 1.21 1.20 1.24 1.36 1.53 1.63 1.48 1.30 1.25 1.18 1.04 0.98 0.99 0.97 1.00 1.00 1.01 1.01 1.08 1.19 1.27 1.24 1.13 1.05 1.07 1.09 1.07 1.02 0.99 1.04 1.12 1.17 1.16
1.35 1.35 1.34 1.31 1.29 1.31 1.32 1.38 1.51 1.48 1.48 1.52 1.40 1.30 1.34 1.37 1.38 1.40 1.31 1.18 1.10 0.99 0.90 0.93 0.92 0.90 0.90 0.96 0.97 0.99 1.08 1.20 1.25 1.20 1.09 1.08 1.05 1.02 1.01 1.00 0.95 0.97 1.01 1.01
1.41 1.37 1.35 1.33 1.29 1.26 1.35 1.46 1.58 1.62 1.68 1.74 1.70 1.53 1.44 1.33 1.29 1.30 1.28 1.23 1.13 1.02 0.98 0.94 0.90 0.89 0.90 0.91 0.87 0.84 0.90 1.00 1.06 1.11 1.16 1.18 1.18 1.16 1.10 1.04 0.96 0.91 0.91 0.91

GEFSNGP_prec_meanprecacc_276.txt.gz
Total_Precipitation_Accumulation
0.15 0.22 0.25 0.30 0.25 0.19 0.16 0.17 0.27 0.35 0.51 0.64 0.63 0.72 1.00 0.86 0.75 0.67 0.66 0.57 0.54 0.63 0.77 0.86 0.90 0.89 0.98 1.11 1.24 1.37 1.49 1.62 1.87 2.15 1.99 1.74 1.70 1.67 1.62 1.70 1.84 2.14 2.28 2.36
0.15 0.20 0.23 0.26 0.27 0.21 0.18 0.17 0.17 0.28 0.48 0.57 0.67 0.70 0.80 0.80 0.83 0.83 0.76 0.73 0.74 0.90 0.93 0.96 0.99 0.95 0.94 0.99 1.08 1.26 1.40 1.53 1.72 1.84 1.69 1.52 1.40 1.42 1.45 1.55 1.73 1.91 2.05 2.17
0.28 0.23 0.27 0.31 0.29 0.25 0.22 0.28 0.28 0.36 0.48 0.54 0.75 0.72 0.72 0.88 0.98 0.91 0.75 0.80 0.85 0.90 1.03 0.97 0.94 0.93 0.94 1.01 1.19 1.38 1.41 1.45 1.59 1.70 1.67 1.56 1.38 1.39 1.45 1.54 1.69 1.78 1.83 1.88
0.42 0.44 0.52 0.41 0.37 0.33 0.31 0.36 0.37 0.41 0.47 0.57 0.75 0.75 0.64 0.69 0.75 0.83 0.87 0.94 0.93 0.92 0.96 0.91 0.86 0.95 0.97 0.98 1.22 1.44 1.47 1.53 1.68 1.84 1.84 1.76 1.68 1.64 1.73 1.80 1.78 1.78 1.82 1.85
0.60 0.60 0.53 0.52 0.51 0.52 0.58 0.73 0.65 0.57 0.54 0.60 0.60 0.70 0.77 0.68 0.63 0.75 0.85 1.02 1.07 0.99 1.04 1.08 1.11 1.16 1.17 1.17 1.35 1.57 1.68 1.72 1.80 1.94 1.99 2.00 2.07 2.11 2.16 2.15 2.02 1.98 2.05 2.08
0.67 0.76 0.76 0.74 0.63 0.59 0.75 1.19 1.06 0.84 0.70 0.66 0.68 1.01 1.15 0.95 0.81 0.82 0.83 0.98 1.17 1.16 1.02 1.08 1.13 1.24 1.44 1.51 1.59 1.67 1.83 1.98 1.99 2.12 2.23 2.19 2.29 2.44 2.56 2.58 2.46 2.48 2.36 2.21
0.75 0.85 0.91 0.85 0.66 0.68 1.25 1.63 1.26 1.06 0.98 0.88 0.96 1.01 1.07 0.94 0.87 0.88 0.87 0.94 1.04 1.26 1.15 1.12 1.23 1.39 1.59 1.71 1.88 1.92 1.98 2.05 2.11 2.26 2.41 2.55 2.74 2.91 2.92 2.85 2.85 2.76 2.50 2.36
0.95 1.16 1.26 0.85 0.82 1.12 1.42 1.25 1.27 1.30 1.36 1.28 1.11 0.91 0.90 0.96 0.87 0.86 0.87 0.89 0.91 0.98 1.10 1.18 1.27 1.55 1.73 1.77 1.84 1.97 2.10 2.22 2.37 2.45 2.47 2.59 2.93 3.04 3.02 2.97 2.81 2.62 2.48 2.27
1.19 1.36 1.14 0.92 1.02 1.08 1.21 1.29 1.34 1.40 1.44 1.31 1.12 0.98 0.98 1.00 0.90 0.83 0.80 0.86 0.91 0.93 1.03 1.20 1.37 1.62 1.93 2.04 1.99 1.97 2.08 2.25 2.41 2.53 2.73 2.93 3.06 3.01 2.90 2.85 2.73 2.57 2.42 2.23
1.37 1.38 1.11 1.07 1.10 1.07 1.14 1.20 1.31 1.27 1.23 1.22 1.16 1.02 1.00 0.95 0.83 0.79 0.81 0.85 0.89 0.98 1.08 1.26 1.48 1.70 2.00 1.98 1.91 1.96 1.98 2.11 2.23 2.30 2.37 2.49 2.71 2.66 2.53 2.49 2.51 2.49 2.43 2.31
1.59 1.58 1.47 1.41 1.38 1.28 1.14 1.09 1.08 1.13 1.11 1.15 1.18 1.15 0.99 0.96 0.89 0.78 0.80 0.85 0.92 1.06 1.26 1.35 1.48 1.62 1.69 1.70 1.73 1.76 1.77 1.84 1.87 1.92 2.00 2.08 2.17 2.25 2.22 2.21 2.19 2.19 2.15 2.11
1.85 1.65 1.60 1.80 1.66 1.51 1.30 1.20 1.17 1.12 1.09 1.16 1.20 1.24 1.06 0.96 0.95 0.85 0.80 0.90 1.06 1.16 1.26 1.39 1.61 1.78 1.76 1.70 1.76 1.82 1.76 1.70 1.67 1.72 1.78 1.79 1.87 1.90 1.92 1.83 1.72 1.61 1.53 1.48
1.61 1.52 1.51 1.57 1.52 1.43 1.33 1.33 1.38 1.31 1.20 1.13 1.14 1.14 1.03 0.96 0.96 0.90 0.89 0.96 1.11 1.13 1.17 1.32 1.48 1.61 1.73 1.86 1.93 1.97 1.90 1.79 1.69 1.59 1.60 1.63 1.66 1.74 1.76 1.66 1.49 1.34 1.23 1.14
1.62 1.54 1.57 1.49 1.44 1.35 1.28 1.33 1.40 1.31 1.25 1.18 1.16 1.12 1.06 0.98 1.00 1.05 1.00 1.05 1.18 1.23 1.24 1.35 1.46 1.53 1.60 1.81 1.97 2.02 1.98 1.87 1.71 1.60 1.54 1.54 1.57 1.59 1.67 1.75 1.64 1.45 1.24 1.04
1.87 1.72 1.62 1.58 1.56 1.48 1.31 1.28 1.32 1.25 1.15 1.15 1.16 1.16 1.13 1.13 1.10 1.12 1.09 1.07 1.18 1.28 1.32 1.39 1.45 1.49 1.60 1.73 1.80 1.80 1.77 1.70 1.60 1.55 1.55 1.54 1.57 1.56 1.53 1.58 1.56 1.51 1.36 1.18
1.83 1.71 1.56 1.55 1.60 1.59 1.47 1.38 1.37 1.33 1.24 1.17 1.17 1.16 1.19 1.22 1.16 1.12 1.08 1.09 1.20 1.24 1.23 1.33 1.42 1.46 1.57 1.76 1.83 1.83 1.82 1.77 1.62 1.55 1.61 1.64 1.62 1.61 1.58 1.64 1.63 1.58 1.43 1.23
1.75 1.71 1.56 1.41 1.42 1.47 1.41 1.31 1.26 1.28 1.27 1.21 1.14 1.07 1.05 1.07 1.16 1.16 1.09 1.04 1.12 1.24 1.27 1.39 1.44 1.43 1.55 1.74 1.92 1.89 1.82 1.76 1.64 1.56 1.58 1.67 1.69 1.66 1.61 1.62 1.60 1.60 1.48 1.29
1.48 1.48 1.43 1.37 1.27 1.23 1.26 1.21 1.16 1.18 1.24 1.20 1.12 1.10 1.12 1.17 1.28 1.36 1.34 1.28 1.29 1.30 1.29 1.34 1.39 1.42 1.50 1.62 1.71 1.72 1.73 1.68 1.54 1.39 1.40 1.48 1.53 1.54 1.55 1.54 1.56 1.58 1.51 1.33
1.33 1.45 1.43 1.34 1.34 1.20 1.25 1.24 1.21 1.21 1.18 1.18 1.15 1.11 1.13 1.25 1.37 1.46 1.55 1.56 1.54 1.48 1.39 1.33 1.42 1.40 1.50 1.60 1.62 1.61 1.57 1.50 1.37 1.21 1.20 1.33 1.40 1.46 1.46 1.42 1.42 1.42 1.33 1.22
1.46 1.52 1.47 1.35 1.41 1.40 1.31 1.31 1.30 1.32 1.20 1.13 1.17 1.21 1.27 1.33 1.44 1.53 1.56 1.53 1.47 1.44 1.38 1.29 1.23 1.23 1.31 1.44 1.55 1.52 1.45 1.41 1.36 1.20 1.16 1.30 1.40 1.49 1.45 1.38 1.36 1.32 1.22 1.19
1.41 1.41 1.32 1.22 1.21 1.20 1.14 1.14 1.17 1.23 1.29 1.30 1.40 1.49 1.53 1.49 1.52 1.66 1.78 1.66 1.41 1.39 1.35 1.32 1.23 1.22 1.20 1.32 1.42 1.42 1.40 1.38 1.42 1.32 1.26 1.29 1.35 1.40 1.37 1.29 1.26 1.21 1.18 1.21
1.33 1.34 1.32 1.26 1.18 1.08 0.98 0.96 1.06 1.15 1.27 1.40 1.49 1.59 1.64 1.67 1.70 1.70 1.64 1.65 1.53 1.55 1.47 1.37 1.31 1.27 1.23 1.24 1.28 1.33 1.35 1.36 1.44 1.41 1.35 1.38 1.46 1.48 1.46 1.40 1.33 1.26 1.22 1.23
1.30 1.34 1.30 1.25 1.27 1.18 1.06 1.03 1.00 1.08 1.16 1.24 1.35 1.58 1.70 1.68 1.75 1.93 1.73 1.42 1.34 1.42 1.43 1.41 1.36 1.27 1.17 1.06 1.13 1.24 1.28 1.32 1.34 1.30 1.25 1.24 1.27 1.31 1.31 1.22 1.18 1.18 1.17 1.16
1.36 1.33 1.35 1.33 1.32 1.21 1.12 1.10 1.10 1.14 1.10 1.12 1.22 1.43 1.64 1.75 1.69 1.60 1.60 1.50 1.32 1.24 1.17 1.21 1.20 1.16 1.15 1.08 1.13 1.21 1.26 1.32 1.26 1.18 1.16 1.17 1.19 1.21 1.18 1.15 1.13 1.12 1.13 1.16
1.40 1.37 1.34 1.34 1.37 1.35 1.27 1.24 1.28 1.27 1.22 1.24 1.24 1.28 1.39 1.56 1.65 1.50 1.32 1.26 1.19 1.06 1.01 1.01 0.99 1.02 1.02 1.03 1.04 1.12 1.24 1.32 1.28 1.15 1.07 1.10 1.11 1.10 1.05 1.02 1.07 1.14 1.18 1.17
1.42 1.41 1.40 1.36 1.32 1.32 1.33 1.39 1.52 1.51 1.52 1.57 1.45 1.35 1.39 1.40 1.40 1.43 1.33 1.20 1.11 1.01 0.92 0.95 0.94 0.92 0.91 0.98 0.99 1.02 1.12 1.24 1.29 1.25 1.13 1.12 1.09 1.06 1.05 1.03 0.98 1.00 1.03 1.03
1.47 1.43 1.41 1.38 1.34 1.29 1.38 1.48 1.61 1.66 1.72 1.78 1.75 1.58 1.48 1.35 1.31 1.32 1.30 1.25 1.14 1.04 0.99 0.96 0.91 0.90 0.92 0.92 0.88 0.85 0.92 1.02 1.09 1.15 1.19 1.21 1.21 1.19 1.13 1.07 0.98 0.93 0.94 0.93

GEFSNGP_prec_meanprecacc_282.txt.gz
Total_Precipitation_Accumulation
0.16 0.22 0.25 0.30 0.26 0.19 0.16 0.17 0.27 0.35 0.51 0.64 0.64 0.73 1.00 0.86 0.75 0.67 0.66 0.57 0.54 0.63 0.78 0.87 0.90 0.89 0.99 1.12 1.25 1.38 1.50 1.63 1.89 2.17 2.02 1.77 1.71 1.67 1.62 1.71 1.85 2.16 2.32 2.41
0.15 0.21 0.23 0.26 0.27 0.21 0.18 0.17 0.17 0.28 0.48 0.57 0.67 0.71 0.80 0.80 0.83 0.83 0.76 0.73 0.74 0.90 0.94 0.97 1.00 0.96 0.95 0.99 1.09 1.27 1.42 1.55 1.74 1.87 1.71 1.54 1.42 1.44 1.46 1.56 1.75 1.93 2.07 2.19
0.28 0.24 0.27 0.31 0.29 0.25 0.22 0.28 0.28 0.36 0.48 0.54 0.76 0.73 0.72 0.89 0.98 0.91 0.75 0.80 0.85 0.91 1.04 0.99 0.95 0.94 0.95 1.03 1.21 1.39 1.42 1.47 1.61 1.71 1.69 1.58 1.41 1.42 1.48 1.58 1.72 1.80 1.84 1.89
0.43 0.45 0.54 0.42 0.37 0.33 0.31 0.37 0.38 0.41 0.47 0.58 0.76 0.76 0.65 0.69 0.75 0.83 0.87 0.94 0.93 0.92 0.98 0.93 0.87 0.96 0.99 1.00 1.23 1.45 1.49 1.55 1.70 1.86 1.86 1.79 1.72 1.69 1.78 1.83 1.80 1.79 1.83 1.87
0.61 0.61 0.54 0.53 0.51 0.52 0.58 0.74 0.67 0.58 0.55 0.62 0.62 0.71 0.77 0.68 0.63 0.75 0.85 1.03 1.07 0.99 1.05 1.09 1.11 1.17 1.20 1.19 1.36 1.58 1.69 1.73 1.81 1.96 2.02 2.04 2.11 2.15 2.20 2.17 2.04 2.00 2.07 2.10
0.68 0.78 0.77 0.75 0.64 0.59 0.75 1.21 1.07 0.84 0.70 0.67 0.68 1.01 1.16 0.96 0.81 0.83 0.84 0.99 1.17 1.17 1.03 1.09 1.14 1.25 1.45 1.53 1.61 1.69 1.84 2.00 2.02 2.15 2.27 2.23 2.32 2.46 2.58 2.59 2.48 2.49 2.37 2.22
0.76 0.86 0.92 0.86 0.66 0.69 1.26 1.64 1.27 1.06 0.98 0.89 0.96 1.01 1.07 0.95 0.87 0.89 0.87 0.94 1.05 1.27 1.16 1.14 1.24 1.40 1.61 1.73 1.89 1.95 2.02 2.09 2.13 2.28 2.43 2.57 2.76 2.94 2.94 2.86 2.87 2.77 2.51 2.37
0.96 1.18 1.27 0.85 0.82 1.14 1.43 1.26 1.28 1.30 1.36 1.29 1.11 0.91 0.91 0.96 0.87 0.87 0.87 0.90 0.91 0.99 1.11 1.19 1.28 1.56 1.74 1.78 1.86 2.00 2.13 2.24 2.39 2.48 2.50 2.61 2.96 3.07 3.05 2.99 2.83 2.64 2.49 2.29
1.20 1.38 1.15 0.93 1.04 1.10 1.22 1.31 1.37 1.42 1.45 1.32 1.12 0.99 0.98 1.00 0.90 0.83 0.80 0.87 0.91 0.94 1.04 1.20 1.38 1.63 1.94 2.05 2.01 1.99 2.11 2.27 2.43 2.57 2.77 2.96 3.10 3.05 2.96 2.90 2.77 2.61 2.47 2.27
1.38 1.38 1.12 1.09 1.12 1.09 1.16 1.25 1.36 1.30 1.25 1.23 1.17 1.03 1.00 0.96 0.84 0.80 0.82 0.86 0.90 0.98 1.09 1.27 1.49 1.71 2.00 1.98 1.91 1.97 1.99 2.13 2.25 2.32 2.39 2.54 2.77 2.73 2.58 2.54 2.57 2.57 2.52 2.39
1.59 1.59 1.50 1.44 1.40 1.30 1.21 1.18 1.15 1.16 1.13 1.17 1.20 1.16 1.00 0.96 0.90 0.81 0.82 0.87 0.93 1.07 1.28 1.38 1.52 1.65 1.70 1.70 1.73 1.77 1.78 1.86 1.89 1.94 2.02 2.11 2.20 2.30 2.28 2.27 2.26 2.27 2.23 2.18
1.88 1.69 1.64 1.83 1.68 1.53 1.33 1.25 1.24 1.17 1.13 1.18 1.22 1.26 1.08 0.98 0.98 0.88 0.85 0.92 1.07 1.18 1.28 1.42 1.64 1.80 1.78 1.72 1.77 1.83 1.77 1.71 1.68 1.73 1.79 1.80 1.88 1.93 1.95 1.86 1.77 1.66 1.58 1.53
1.65 1.55 1.53 1.59 1.53 1.44 1.34 1.35 1.41 1.36 1.26 1.18 1.19 1.18 1.07 0.99 0.98 0.92 0.92 0.99 1.13 1.15 1.19 1.35 1.50 1.63 1.75 1.88 1.95 1.99 1.91 1.81 1.71 1.61 1.62 1.65 1.68 1.77 1.80 1.70 1.53 1.37 1.25 1.17
1.65 1.57 1.58 1.51 1.45 1.36 1.29 1.34 1.42 1.33 1.28 1.21 1.19 1.15 1.10 1.00 1.02 1.06 1.02 1.07 1.20 1.25 1.27 1.37 1.48 1.55 1.62 1.84 1.99 2.05 2.00 1.88 1.73 1.63 1.58 1.58 1.60 1.64 1.73 1.80 1.69 1.50 1.28 1.09
1.90 1.73 1.63 1.60 1.58 1.50 1.32 1.30 1.35 1.26 1.17 1.17 1.18 1.19 1.16 1.15 1.12 1.14 1.10 1.08 1.19 1.29 1.34 1.42 1.47 1.50 1.62 1.75 1.82 1.83 1.80 1.72 1.61 1.58 1.59 1.60 1.64 1.66 1.63 1.67 1.64 1.56 1.41 1.22
1.90 1.74 1.57 1.57 1.62 1.61 1.49 1.41 1.41 1.38 1.27 1.18 1.19 1.18 1.21 1.24 1.17 1.13 1.09 1.11 1.22 1.25 1.25 1.34 1.44 1.47 1.59 1.78 1.86 1.86 1.85 1.80 1.64 1.58 1.66 1.70 1.70 1.70 1.68 1.74 1.72 1.64 1.47 1.27
1.80 1.74 1.59 1.44 1.45 1.49 1.44 1.37 1.30 1.32 1.29 1.23 1.16 1.09 1.06 1.09 1.17 1.17 1.09 1.04 1.13 1.25 1.28 1.40 1.46 1.44 1.56 1.76 1.95 1.92 1.84 1.78 1.66 1.58 1.62 1.74 1.77 1.75 1.70 1.71 1.69 1.67 1.54 1.36
1.52 1.51 1.48 1.42 1.31 1.26 1.28 1.25 1.24 1.23 1.27 1.23 1.16 1.13 1.15 1.20 1.31 1.38 1.35 1.28 1.30 1.31 1.30 1.35 1.39 1.43 1.52 1.66 1.74 1.74 1.77 1.70 1.56 1.41 1.44 1.54 1.61 1.64 1.66 1.63 1.64 1.66 1.60 1.43
1.35 1.47 1.47 1.39 1.38 1.23 1.29 1.30 1.30 1.29 1.25 1.23 1.22 1.18 1.19 1.29 1.40 1.48 1.56 1.56 1.55 1.49 1.40 1.33 1.43 1.41 1.51 1.62 1.64 1.63 1.61 1.54 1.40 1.23 1.24 1.38 1.45 1.52 1.56 1.52 1.52 1.51 1.44 1.35
1.49 1.54 1.49 1.37 1.44 1.46 1.40 1.43 1.41 1.39 1.28 1.20 1.24 1.30 1.36 1.39 1.48 1.55 1.57 1.54 1.48 1.44 1.39 1.30 1.24 1.23 1.31 1.45 1.55 1.53 1.48 1.44 1.39 1.22 1.18 1.33 1.44 1.53 1.51 1.46 1.46 1.45 1.36 1.33
1.47 1.46 1.36 1.27 1.28 1.30 1.25 1.26 1.26 1.28 1.35 1.35 1.44 1.54 1.59 1.55 1.56 1.68 1.80 1.67 1.42 1.39 1.36 1.34 1.25 1.23 1.21 1.33 1.43 1.43 1.41 1.41 1.45 1.34 1.27 1.31 1.38 1.43 1.40 1.34 1.32 1.30 1.31 1.35
1.41 1.40 1.38 1.34 1.30 1.23 1.12 1.11 1.17 1.23 1.33 1.45 1.53 1.63 1.69 1.71 1.73 1.73 1.66 1.67 1.54 1.56 1.48 1.38 1.33 1.29 1.26 1.26 1.30 1.35 1.37 1.38 1.46 1.43 1.37 1.42 1.49 1.51 1.50 1.43 1.37 1.32 1.31 1.33
1.37 1.40 1.35 1.34 1.40 1.34 1.22 1.15 1.10 1.17 1.25 1.31 1.41 1.63 1.74 1.72 1.79 1.96 1.76 1.44 1.37 1.44 1.44 1.42 1.38 1.30 1.20 1.09 1.17 1.28 1.31 1.36 1.38 1.33 1.28 1.27 1.30 1.34 1.34 1.26 1.22 1.23 1.23 1.22
1.47 1.42 1.41 1.41 1.43 1.34 1.28 1.23 1.17 1.20 1.16 1.17 1.26 1.47 1.68 1.78 1.72 1.63 1.63 1.53 1.35 1.26 1.19 1.23 1.23 1.18 1.17 1.10 1.16 1.23 1.28 1.34 1.30 1.22 1.19 1.20 1.22 1.24 1.21 1.19 1.17 1.16 1.17 1.19
1.53 1.46 1.41 1.40 1.44 1.42 1.34 1.30 1.32 1.29 1.24 1.25 1.25 1.30 1.42 1.59 1.69 1.54 1.35 1.29 1.22 1.08 1.02 1.03 1.01 1.03 1.04 1.05 1.06 1.14 1.26 1.34 1.31 1.19 1.11 1.13 1.14 1.14 1.09 1.07 1.11 1.18 1.22 1.21
1.52 1.50 1.47 1.41 1.35 1.35 1.35 1.41 1.54 1.52 1.53 1.58 1.47 1.37 1.42 1.44 1.44 1.47 1.37 1.22 1.13 1.03 0.93 0.97 0.96 0.93 0.93 1.00 1.02 1.05 1.15 1.28 1.33 1.28 1.16 1.15 1.12 1.10 1.10 1.08 1.04 1.05 1.08 1.09
1.55 1.50 1.47 1.42 1.36 1.30 1.38 1.49 1.62 1.68 1.75 1.82 1.79 1.63 1.52 1.39 1.35 1.36 1.33 1.27 1.17 1.06 1.01 0.98 0.94 0.92 0.93 0.94 0.90 0.88 0.95 1.06 1.12 1.18 1.23 1.25 1.25 1.25 1.19 1.12 1.04 0.99 0.99 0.99

GEFSNGP_prec_meanprecacc_288.txt.gz
Total_Precipitation_Accumulation
0.17 0.24 0.28 0.32 0.27 0.21 0.17 0.17 0.29 0.37 0.52 0.65 0.66 0.76 1.02 0.87 0.76 0.68 0.66 0.58 0.55 0.63 0.78 0.89 0.91 0.91 1.00 1.14 1.27 1.40 1.52 1.66 1.91 2.19 2.04 1.79 1.74 1.69 1.63 1.72 1.86 2.17 2.32 2.41
0.16 0.22 0.26 0.28 0.29 0.23 0.20 0.18 0.18 0.29 0.49 0.58 0.68 0.73 0.82 0.82 0.85 0.84 0.76 0.74 0.74 0.90 0.94 0.98 1.05 1.00 0.97 1.01 1.11 1.30 1.44 1.57 1.76 1.88 1.72 1.55 1.43 1.45 1.48 1.57 1.75 1.94 2.08 2.20
0.29 0.25 0.29 0.33 0.30 0.26 0.23 0.29 0.28 0.37 0.49 0.55 0.77 0.75 0.74 0.90 0.99 0.92 0.75 0.80 0.85 0.91 1.05 1.00 0.98 0.98 0.99 1.04 1.22 1.40 1.44 1.48 1.62 1.72 1.70 1.59 1.42 1.43 1.50 1.60 1.73 1.81 1.85 1.90
0.44 0.46 0.56 0.43 0.37 0.34 0.32 0.37 0.38 0.42 0.48 0.59 0.77 0.77 0.66 0.70 0.76 0.84 0.87 0.94 0.93 0.92 0.98 0.93 0.88 0.98 1.01 1.01 1.24 1.46 1.50 1.55 1.70 1.86 1.87 1.80 1.74 1.70 1.79 1.84 1.81 1.80 1.84 1.88
0.63 0.61 0.55 0.53 0.52 0.52 0.59 0.75 0.68 0.59 0.56 0.62 0.63 0.72 0.80 0.69 0.63 0.75 0.85 1.03 1.07 0.99 1.05 1.10 1.13 1.18 1.21 1.19 1.37 1.58 1.69 1.74 1.81 1.97 2.02 2.05 2.12 2.17 2.21 2.19 2.05 2.00 2.08 2.10
0.70 0.78 0.78 0.75 0.64 0.59 0.76 1.22 1.09 0.86 0.72 0.68 0.69 1.03 1.18 0.97 0.82 0.84 0.84 0.99 1.17 1.17 1.03 1.09 1.15 1.27 1.46 1.54 1.62 1.72 1.87 2.01 2.03 2.17 2.29 2.26 2.35 2.48 2.60 2.61 2.50 2.52 2.38 2.23
0.77 0.87 0.93 0.87 0.66 0.70 1.28 1.65 1.29 1.08 1.00 0.91 0.98 1.02 1.08 0.96 0.88 0.90 0.88 0.94 1.05 1.27 1.17 1.14 1.25 1.42 1.63 1.75 1.91 1.99 2.08 2.14 2.16 2.31 2.46 2.60 2.80 2.97 2.97 2.90 2.90 2.81 2.54 2.40
0.96 1.19 1.28 0.86 0.84 1.16 1.46 1.28 1.30 1.33 1.42 1.33 1.13 0.93 0.93 0.97 0.88 0.88 0.88 0.90 0.92 1.00 1.12 1.21 1.30 1.58 1.76 1.79 1.87 2.02 2.15 2.26 2.41 2.50 2.52 2.64 3.00 3.12 3.10 3.05 2.91 2.71 2.55 2.33
1.20 1.39 1.17 0.95 1.08 1.13 1.26 1.34 1.38 1.44 1.49 1.35 1.15 1.01 1.01 1.02 0.91 0.84 0.82 0.88 0.92 0.95 1.06 1.22 1.40 1.65 1.97 2.07 2.02 2.00 2.12 2.29 2.45 2.59 2.79 2.99 3.14 3.11 3.03 2.98 2.85 2.69 2.53 2.32
1.39 1.40 1.14 1.11 1.17 1.13 1.20 1.29 1.40 1.33 1.28 1.26 1.19 1.05 1.02 0.97 0.85 0.81 0.84 0.88 0.92 1.00 1.11 1.29 1.51 1.73 2.03 2.00 1.93 1.98 2.01 2.14 2.26 2.34 2.41 2.56 2.80 2.76 2.61 2.57 2.61 2.60 2.55 2.44
1.61 1.61 1.51 1.46 1.43 1.33 1.23 1.21 1.20 1.22 1.16 1.19 1.22 1.18 1.01 0.98 0.92 0.82 0.83 0.88 0.95 1.09 1.30 1.40 1.55 1.69 1.74 1.74 1.76 1.79 1.81 1.88 1.91 1.95 2.03 2.12 2.22 2.32 2.30 2.29 2.29 2.31 2.30 2.27
1.91 1.71 1.66 1.86 1.71 1.55 1.35 1.28 1.28 1.24 1.19 1.22 1.26 1.30 1.11 1.00 0.99 0.90 0.87 0.93 1.09 1.20 1.29 1.43 1.66 1.84 1.84 1.79 1.84 1.89 1.82 1.77 1.74 1.76 1.81 1.83 1.91 1.96 1.99 1.89 1.80 1.70 1.64 1.61
1.68 1.58 1.56 1.62 1.58 1.47 1.36 1.37 1.46 1.44 1.34 1.25 1.25 1.25 1.12 1.02 0.99 0.94 0.93 1.00 1.15 1.18 1.22 1.37 1.53 1.66 1.79 1.94 2.02 2.07 2.00 1.89 1.79 1.70 1.69 1.73 1.75 1.83 1.85 1.76 1.60 1.44 1.33 1.27
1.69 1.63 1.63 1.55 1.50 1.40 1.31 1.36 1.44 1.37 1.34 1.27 1.25 1.21 1.14 1.03 1.04 1.08 1.04 1.10 1.23 1.28 1.30 1.41 1.52 1.60 1.67 1.89 2.06 2.13 2.09 1.98 1.82 1.70 1.65 1.64 1.66 1.70 1.80 1.88 1.78 1.59 1.37 1.18
1.99 1.85 1.74 1.70 1.65 1.55 1.37 1.34 1.38 1.32 1.22 1.26 1.29 1.31 1.23 1.18 1.14 1.16 1.12 1.10 1.22 1.32 1.36 1.45 1.51 1.54 1.66 1.79 1.86 1.90 1.89 1.80 1.66 1.62 1.63 1.63 1.68 1.70 1.68 1.72 1.68 1.61 1.46 1.26
1.99 1.88 1.72 1.70 1.71 1.66 1.54 1.45 1.45 1.44 1.36 1.27 1.27 1.27 1.28 1.27 1.20 1.15 1.12 1.13 1.24 1.27 1.26 1.35 1.46 1.49 1.61 1.80 1.88 1.88 1.88 1.84 1.67 1.61 1.70 1.74 1.73 1.73 1.70 1.77 1.75 1.68 1.51 1.30
1.88 1.88 1.74 1.57 1.55 1.58 1.50 1.44 1.40 1.41 1.40 1.34 1.24 1.15 1.14 1.16 1.23 1.22 1.14 1.08 1.15 1.27 1.29 1.41 1.46 1.46 1.58 1.77 1.96 1.94 1.86 1.81 1.69 1.60 1.64 1.76 1.79 1.76 1.71 1.73 1.70 1.70 1.57 1.39
1.57 1.61 1.59 1.50 1.39 1.37 1.38 1.33 1.36 1.37 1.39 1.33 1.25 1.20 1.22 1.29 1.41 1.45 1.41 1.33 1.33 1.33 1.31 1.35 1.40 1.44 1.53 1.67 1.75 1.76 1.78 1.72 1.58 1.43 1.45 1.55 1.61 1.65 1.68 1.64 1.66 1.68 1.63 1.46
1.36 1.50 1.52 1.46 1.44 1.30 1.37 1.36 1.35 1.37 1.34 1.34 1.34 1.30 1.28 1.37 1.47 1.54 1.61 1.60 1.57 1.50 1.41 1.34 1.44 1.42 1.52 1.63 1.65 1.65 1.63 1.56 1.42 1.25 1.25 1.40 1.46 1.54 1.59 1.56 1.54 1.53 1.47 1.39
1.51 1.56 1.52 1.43 1.48 1.51 1.46 1.47 1.44 1.43 1.34 1.28 1.32 1.40 1.48 1.50 1.57 1.62 1.63 1.59 1.51 1.47 1.40 1.32 1.25 1.24 1.32 1.46 1.56 1.55 1.52 1.47 1.42 1.25 1.22 1.36 1.46 1.55 1.53 1.49 1.49 1.48 1.39 1.37
1.49 1.47 1.39 1.30 1.32 1.34 1.28 1.29 1.30 1.35 1.41 1.40 1.48 1.58 1.66 1.63 1.64 1.76 1.87 1.73 1.47 1.43 1.39 1.36 1.27 1.25 1.23 1.36 1.46 1.46 1.46 1.46 1.50 1.38 1.32 1.35 1.41 1.46 1.43 1.38 1.37 1.35 1.36 1.40
1.44 1.44 1.43 1.41 1.37 1.28 1.15 1.14 1.23 1.32 1.41 1.51 1.59 1.67 1.73 1.75 1.79 1.79 1.72 1.74 1.62 1.64 1.55 1.43 1.36 1.32 1.30 1.30 1.33 1.40 1.41 1.43 1.52 1.47 1.40 1.45 1.53 1.55 1.54 1.49 1.44 1.37 1.36 1.38
1.41 1.45 1.42 1.44 1.48 1.41 1.27 1.22 1.20 1.29 1.39 1.42 1.50 1.70 1.78 1.75 1.82 2.00 1.81 1.51 1.44 1.52 1.53 1.51 1.46 1.36 1.25 1.14 1.22 1.34 1.36 1.40 1.43 1.38 1.32 1.31 1.35 1.40 1.40 1.32 1.28 1.29 1.28 1.27
1.51 1.47 1.46 1.48 1.49 1.39 1.36 1.35 1.33 1.34 1.29 1.25 1.33 1.52 1.71 1.81 1.75 1.66 1.66 1.56 1.39 1.31 1.25 1.30 1.29 1.23 1.22 1.16 1.22 1.31 1.34 1.40 1.36 1.28 1.25 1.25 1.28 1.29 1.27 1.25 1.23 1.23 1.24 1.26
1.55 1.49 1.43 1.44 1.48 1.46 1.40 1.40 1.47 1.43 1.32 1.30 1.29 1.33 1.45 1.61 1.71 1.57 1.38 1.32 1.25 1.11 1.05 1.06 1.03 1.06 1.06 1.08 1.10 1.19 1.32 1.41 1.37 1.25 1.17 1.19 1.20 1.20 1.16 1.13 1.18 1.26 1.31 1.30
1.55 1.53 1.49 1.44 1.40 1.40 1.39 1.45 1.60 1.59 1.59 1.64 1.52 1.42 1.45 1.46 1.46 1.50 1.40 1.25 1.16 1.06 0.96 0.99 0.98 0.96 0.95 1.03 1.04 1.07 1.18 1.32 1.38 1.34 1.21 1.23 1.21 1.20 1.20 1.18 1.14 1.16 1.20 1.21
1.57 1.54 1.50 1.46 1.41 1.34 1.41 1.52 1.65 1.71 1.77 1.85 1.85 1.70 1.57 1.43 1.38 1.39 1.36 1.30 1.19 1.09 1.04 1.00 0.95 0.93 0.94 0.96 0.92 0.90 0.98 1.09 1.16 1.23 1.30 1.32 1.34 1.35 1.31 1.24 1.15 1.10 1.10 1.11

GEFSNGP_prec_meanprecacc_294.txt.gz
Total_Precipitation_Accumulation
0.18 0.25 0.28 0.32 0.27 0.21 0.18 0.17 0.29 0.37 0.52 0.66 0.66 0.76 1.02 0.87 0.76 0.68 0.67 0.58 0.55 0.64 0.78 0.89 0.91 0.91 1.00 1.14 1.28 1.42 1.54 1.68 1.93 2.21 2.06 1.80 1.75 1.70 1.65 1.73 1.87 2.18 2.33 2.42
0.16 0.22 0.26 0.28 0.29 0.24 0.20 0.18 0.18 0.29 0.49 0.58 0.69 0.74 0.82 0.83 0.85 0.84 0.77 0.74 0.75 0.90 0.94 0.98 1.05 1.01 0.97 1.02 1.12 1.31 1.45 1.58 1.77 1.89 1.73 1.56 1.44 1.46 1.49 1.59 1.76 1.95 2.09 2.20
0.29 0.25 0.29 0.34 0.30 0.28 0.24 0.29 0.28 0.37 0.49 0.55 0.77 0.75 0.74 0.90 0.99 0.92 0.76 0.81 0.86 0.91 1.05 1.00 0.98 0.99 0.99 1.04 1.23 1.40 1.45 1.49 1.63 1.72 1.70 1.59 1.42 1.43 1.50 1.61 1.74 1.82 1.85 1.90
0.44 0.46 0.56 0.43 0.38 0.35 0.32 0.37 0.38 0.42 0.48 0.59 0.78 0.77 0.67 0.71 0.76 0.84 0.87 0.95 0.93 0.93 0.98 0.93 0.88 0.98 1.01 1.01 1.24 1.46 1.50 1.55 1.71 1.86 1.87 1.81 1.74 1.71 1.80 1.85 1.82 1.81 1.85 1.88
0.64 0.62 0.55 0.53 0.52 0.53 0.59 0.75 0.68 0.59 0.56 0.63 0.63 0.73 0.80 0.69 0.63 0.75 0.85 1.03 1.08 1.00 1.06 1.10 1.14 1.19 1.21 1.20 1.37 1.58 1.69 1.74 1.82 1.97 2.03 2.05 2.13 2.17 2.22 2.20 2.06 2.02 2.10 2.12
0.71 0.79 0.78 0.75 0.64 0.59 0.76 1.22 1.09 0.86 0.72 0.68 0.70 1.03 1.18 0.97 0.82 0.84 0.85 1.01 1.19 1.18 1.05 1.10 1.16 1.27 1.47 1.55 1.63 1.72 1.87 2.02 2.04 2.17 2.30 2.27 2.36 2.49 2.61 2.65 2.54 2.55 2.42 2.25
0.78 0.88 0.94 0.87 0.66 0.70 1.29 1.66 1.29 1.09 1.01 0.91 0.98 1.03 1.09 0.97 0.89 0.91 0.89 0.96 1.08 1.30 1.19 1.16 1.26 1.42 1.63 1.75 1.92 1.99 2.09 2.16 2.17 2.32 2.48 2.61 2.81 3.00 3.02 2.96 2.96 2.87 2.58 2.44
0.98 1.20 1.29 0.86 0.84 1.16 1.47 1.28 1.30 1.34 1.42 1.34 1.14 0.93 0.94 0.99 0.90 0.89 0.89 0.92 0.94 1.03 1.15 1.24 1.32 1.59 1.77 1.80 1.88 2.03 2.16 2.27 2.42 2.51 2.53 2.65 3.01 3.13 3.13 3.10 2.96 2.79 2.64 2.41
1.22 1.40 1.17 0.95 1.09 1.14 1.26 1.34 1.39 1.44 1.50 1.35 1.15 1.01 1.02 1.04 0.93 0.86 0.83 0.89 0.94 0.97 1.08 1.24 1.42 1.67 1.99 2.08 2.03 2.01 2.13 2.29 2.46 2.60 2.80 2.99 3.15 3.12 3.05 3.01 2.89 2.73 2.59 2.38
1.41 1.42 1.15 1.11 1.18 1.13 1.20 1.30 1.41 1.34 1.29 1.27 1.21 1.06 1.04 0.99 0.86 0.82 0.85 0.89 0.93 1.01 1.12 1.30 1.52 1.74 2.04 2.02 1.94 1.99 2.02 2.15 2.26 2.35 2.43 2.58 2.83 2.79 2.65 2.61 2.66 2.66 2.61 2.47
1.63 1.63 1.53 1.47 1.44 1.34 1.24 1.22 1.22 1.24 1.19 1.22 1.24 1.21 1.04 0.99 0.93 0.83 0.84 0.89 0.96 1.10 1.30 1.41 1.56 1.70 1.75 1.75 1.77 1.80 1.81 1.89 1.92 1.96 2.05 2.14 2.25 2.37 2.36 2.36 2.35 2.37 2.35 2.31
1.93 1.73 1.67 1.87 1.73 1.56 1.36 1.29 1.31 1.28 1.22 1.24 1.29 1.33 1.14 1.02 1.01 0.91 0.88 0.94 1.10 1.21 1.30 1.44 1.68 1.85 1.85 1.81 1.86 1.90 1.83 1.78 1.76 1.79 1.85 1.87 1.96 2.01 2.05 1.95 1.85 1.76 1.70 1.67
1.71 1.61 1.58 1.63 1.59 1.48 1.37 1.38 1.48 1.50 1.41 1.29 1.28 1.29 1.16 1.05 1.03 0.97 0.97 1.05 1.18 1.20 1.23 1.38 1.54 1.67 1.80 1.96 2.05 2.11 2.03 1.92 1.82 1.74 1.74 1.77 1.80 1.89 1.92 1.83 1.67 1.50 1.38 1.31
1.71 1.65 1.65 1.57 1.51 1.41 1.32 1.37 1.46 1.41 1.41 1.34 1.30 1.26 1.18 1.08 1.09 1.13 1.08 1.14 1.27 1.31 1.33 1.43 1.54 1.62 1.69 1.92 2.09 2.16 2.12 2.00 1.84 1.74 1.69 1.69 1.72 1.76 1.86 1.95 1.85 1.64 1.41 1.21
2.00 1.86 1.75 1.72 1.67 1.57 1.39 1.37 1.41 1.36 1.28 1.31 1.35 1.38 1.33 1.28 1.23 1.23 1.17 1.15 1.27 1.37 1.42 1.49 1.53 1.55 1.68 1.81 1.88 1.91 1.91 1.82 1.68 1.64 1.66 1.67 1.72 1.73 1.71 1.75 1.72 1.66 1.50 1.30
2.00 1.89 1.73 1.71 1.74 1.71 1.59 1.51 1.50 1.50 1.42 1.34 1.36 1.38 1.41 1.43 1.32 1.25 1.18 1.18 1.29 1.32 1.31 1.42 1.51 1.51 1.62 1.82 1.89 1.89 1.89 1.85 1.68 1.62 1.71 1.75 1.74 1.74 1.71 1.78 1.77 1.70 1.53 1.32
1.89 1.89 1.74 1.58 1.58 1.62 1.54 1.47 1.44 1.46 1.45 1.41 1.34 1.28 1.24 1.24 1.30 1.28 1.18 1.11 1.19 1.31 1.33 1.43 1.49 1.48 1.59 1.79 1.98 1.95 1.88 1.82 1.71 1.61 1.65 1.77 1.80 1.77 1.72 1.73 1.71 1.71 1.58 1.40
1.57 1.61 1.59 1.51 1.40 1.39 1.40 1.35 1.39 1.41 1.43 1.39 1.33 1.28 1.29 1.34 1.46 1.51 1.46 1.38 1.38 1.37 1.34 1.37 1.42 1.46 1.55 1.69 1.77 1.77 1.79 1.73 1.59 1.44 1.47 1.56 1.62 1.65 1.68 1.65 1.67 1.69 1.63 1.47
1.37 1.51 1.53 1.47 1.44 1.31 1.38 1.38 1.37 1.39 1.37 1.39 1.39 1.36 1.34 1.43 1.54 1.62 1.67 1.65 1.61 1.53 1.43 1.36 1.45 1.43 1.53 1.64 1.67 1.66 1.64 1.57 1.43 1.27 1.28 1.41 1.47 1.54 1.59 1.57 1.55 1.54 1.48 1.39
1.53 1.57 1.52 1.43 1.49 1.52 1.48 1.49 1.46 1.46 1.37 1.32 1.36 1.43 1.53 1.57 1.65 1.70 1.71 1.66 1.56 1.51 1.43 1.34 1.28 1.26 1.34 1.48 1.59 1.57 1.54 1.49 1.44 1.28 1.25 1.40 1.50 1.59 1.56 1.52 1.52 1.51 1.41 1.39
1.52 1.49 1.40 1.31 1.34 1.36 1.30 1.31 1.32 1.37 1.43 1.42 1.50 1.60 1.69 1.66 1.69 1.82 1.92 1.79 1.53 1.49 1.44 1.40 1.31 1.30 1.28 1.40 1.49 1.50 1.49 1.49 1.54 1.42 1.37 1.41 1.47 1.53 1.49 1.43 1.42 1.40 1.41 1.45
1.46 1.46 1.45 1.42 1.39 1.29 1.17 1.16 1.25 1.33 1.42 1.52 1.60 1.69 1.75 1.78 1.82 1.82 1.76 1.78 1.66 1.68 1.59 1.46 1.40 1.38 1.36 1.36 1.38 1.43 1.45 1.48 1.58 1.52 1.45 1.48 1.56 1.60 1.59 1.53 1.47 1.41 1.40 1.44
1.43 1.47 1.44 1.45 1.49 1.42 1.29 1.24 1.22 1.31 1.41 1.44 1.52 1.71 1.80 1.78 1.85 2.04 1.85 1.54 1.47 1.55 1.55 1.53 1.50 1.41 1.30 1.19 1.28 1.40 1.43 1.46 1.48 1.43 1.35 1.34 1.37 1.42 1.43 1.36 1.32 1.32 1.32 1.32
1.53 1.49 1.48 1.49 1.50 1.40 1.36 1.35 1.34 1.35 1.31 1.27 1.35 1.54 1.74 1.84 1.78 1.69 1.69 1.60 1.42 1.34 1.28 1.33 1.33 1.28 1.29 1.23 1.30 1.39 1.41 1.45 1.41 1.33 1.28 1.28 1.31 1.33 1.31 1.28 1.27 1.27 1.29 1.32
1.57 1.51 1.45 1.45 1.49 1.47 1.40 1.41 1.47 1.44 1.33 1.31 1.30 1.35 1.47 1.63 1.74 1.60 1.41 1.34 1.28 1.14 1.08 1.10 1.08 1.10 1.11 1.13 1.15 1.25 1.39 1.48 1.44 1.31 1.21 1.23 1.24 1.23 1.19 1.16 1.21 1.29 1.34 1.33
1.56 1.54 1.50 1.46 1.41 1.41 1.40 1.45 1.60 1.60 1.59 1.64 1.54 1.43 1.47 1.48 1.49 1.53 1.42 1.27 1.17 1.07 0.98 1.02 1.00 0.97 0.98 1.06 1.08 1.11 1.23 1.39 1.45 1.37 1.24 1.25 1.23 1.22 1.23 1.21 1.16 1.19 1.23 1.24
1.59 1.55 1.51 1.47 1.42 1.35 1.42 1.53 1.66 1.72 1.78 1.86 1.87 1.72 1.59 1.45 1.40 1.41 1.38 1.32 1.21 1.10 1.05 1.02 0.97 0.95 0.96 0.98 0.94 0.92 1.00 1.14 1.22 1.28 1.33 1.35 1.36 1.36 1.32 1.26 1.18 1.13 1.14 1.15

GEFSNGP_prec_meanprecacc_300.txt.gz
Total_Precipitation_Accumulation
0.18 0.25 0.28 0.32 0.27 0.21 0.18 0.17 0.29 0.37 0.52 0.66 0.66 0.76 1.02 0.87 0.76 0.68 0.67 0.58 0.55 0.64 0.79 0.89 0.92 0.91 1.01 1.15 1.28 1.43 1.55 1.68 1.93 2.21 2.07 1.82 1.76 1.71 1.65 1.73 1.87 2.18 2.34 2.42
0.16 0.22 0.26 0.28 0.29 0.24 0.20 0.18 0.18 0.30 0.49 0.58 0.69 0.74 0.82 0.83 0.85 0.84 0.77 0.75 0.75 0.90 0.95 0.99 1.05 1.01 0.97 1.02 1.12 1.32 1.46 1.59 1.77 1.89 1.74 1.56 1.44 1.47 1.50 1.59 1.77 1.95 2.09 2.21
0.29 0.25 0.29 0.34 0.30 0.28 0.24 0.29 0.28 0.37 0.49 0.55 0.77 0.75 0.75 0.91 0.99 0.92 0.76 0.81 0.86 0.92 1.06 1.00 0.98 0.99 0.99 1.05 1.23 1.42 1.46 1.50 1.63 1.73 1.71 1.60 1.43 1.44 1.51 1.61 1.74 1.82 1.86 1.91
0.44 0.46 0.56 0.43 0.38 0.35 0.32 0.37 0.38 0.42 0.49 0.60 0.78 0.78 0.67 0.72 0.77 0.85 0.87 0.95 0.94 0.94 0.99 0.93 0.88 0.98 1.02 1.02 1.26 1.48 1.52 1.57 1.71 1.87 1.88 1.81 1.74 1.71 1.80 1.86 1.82 1.81 1.85 1.89
0.64 0.62 0.55 0.53 0.52 0.53 0.59 0.75 0.68 0.60 0.57 0.63 0.63 0.73 0.81 0.69 0.63 0.75 0.86 1.04 1.09 1.02 1.07 1.11 1.14 1.20 1.22 1.21 1.39 1.60 1.70 1.75 1.82 1.97 2.03 2.05 2.13 2.17 2.22 2.20 2.06 2.03 2.10 2.13
0.72 0.79 0.78 0.76 0.64 0.59 0.76 1.23 1.10 0.87 0.73 0.69 0.70 1.03 1.19 0.98 0.82 0.84 0.85 1.01 1.20 1.20 1.07 1.12 1.17 1.28 1.48 1.55 1.64 1.73 1.88 2.03 2.05 2.18 2.30 2.27 2.36 2.49 2.62 2.65 2.54 2.56 2.43 2.26
0.79 0.89 0.94 0.87 0.67 0.70 1.30 1.67 1.29 1.09 1.01 0.92 0.99 1.03 1.09 0.97 0.89 0.91 0.89 0.97 1.10 1.31 1.21 1.17 1.27 1.43 1.64 1.76 1.93 2.00 2.09 2.17 2.19 2.33 2.48 2.62 2.82 3.00 3.02 2.97 2.97 2.87 2.59 2.46
0.99 1.21 1.29 0.87 0.85 1.18 1.48 1.29 1.30 1.34 1.43 1.36 1.14 0.94 0.94 0.99 0.90 0.89 0.89 0.93 0.95 1.04 1.16 1.25 1.34 1.62 1.81 1.83 1.90 2.04 2.17 2.27 2.42 2.52 2.54 2.65 3.01 3.14 3.14 3.11 2.97 2.80 2.65 2.44
1.23 1.41 1.18 0.97 1.10 1.16 1.28 1.35 1.40 1.46 1.51 1.36 1.16 1.01 1.02 1.04 0.94 0.86 0.84 0.90 0.95 0.98 1.10 1.28 1.48 1.72 2.02 2.10 2.04 2.02 2.14 2.30 2.47 2.61 2.81 3.00 3.16 3.13 3.06 3.03 2.91 2.75 2.61 2.40
1.42 1.43 1.16 1.13 1.19 1.15 1.22 1.30 1.42 1.36 1.30 1.28 1.21 1.07 1.05 1.00 0.87 0.83 0.85 0.90 0.94 1.02 1.14 1.33 1.55 1.76 2.05 2.03 1.95 2.00 2.02 2.15 2.27 2.35 2.43 2.58 2.84 2.81 2.67 2.64 2.69 2.68 2.64 2.51
1.65 1.66 1.55 1.50 1.45 1.35 1.25 1.23 1.24 1.27 1.21 1.24 1.26 1.22 1.05 1.00 0.94 0.83 0.85 0.90 0.97 1.11 1.31 1.42 1.58 1.71 1.76 1.76 1.78 1.81 1.82 1.90 1.93 1.98 2.06 2.15 2.26 2.38 2.37 2.37 2.37 2.39 2.38 2.34
1.95 1.76 1.71 1.91 1.75 1.57 1.37 1.30 1.33 1.31 1.26 1.28 1.31 1.35 1.16 1.04 1.02 0.92 0.89 0.95 1.11 1.22 1.32 1.46 1.69 1.87 1.87 1.82 1.87 1.91 1.85 1.81 1.79 1.82 1.86 1.88 1.97 2.02 2.06 1.96 1.87 1.78 1.73 1.71
1.72 1.62 1.60 1.66 1.62 1.49 1.37 1.39 1.50 1.54 1.45 1.32 1.31 1.31 1.20 1.07 1.04 0.98 0.97 1.05 1.19 1.20 1.24 1.39 1.55 1.68 1.81 1.97 2.08 2.13 2.04 1.94 1.84 1.76 1.76 1.79 1.82 1.91 1.94 1.85 1.70 1.54 1.42 1.35
1.73 1.67 1.67 1.58 1.52 1.42 1.33 1.38 1.47 1.44 1.44 1.36 1.32 1.27 1.20 1.09 1.10 1.14 1.09 1.15 1.28 1.32 1.34 1.44 1.54 1.62 1.70 1.94 2.12 2.19 2.14 2.03 1.87 1.76 1.71 1.71 1.74 1.78 1.88 1.97 1.88 1.68 1.45 1.27
2.03 1.88 1.77 1.73 1.68 1.58 1.40 1.38 1.42 1.38 1.30 1.33 1.36 1.39 1.35 1.30 1.25 1.25 1.19 1.16 1.29 1.39 1.45 1.51 1.55 1.57 1.71 1.85 1.94 1.96 1.95 1.85 1.72 1.67 1.68 1.69 1.74 1.75 1.72 1.76 1.74 1.68 1.52 1.32
2.03 1.91 1.74 1.73 1.75 1.72 1.60 1.51 1.51 1.50 1.43 1.35 1.37 1.40 1.42 1.44 1.34 1.27 1.21 1.21 1.33 1.36 1.35 1.47 1.57 1.56 1.66 1.86 1.93 1.92 1.91 1.87 1.71 1.64 1.73 1.77 1.76 1.77 1.73 1.80 1.78 1.72 1.54 1.33
1.92 1.91 1.76 1.59 1.60 1.64 1.55 1.48 1.45 1.48 1.47 1.42 1.35 1.29 1.26 1.26 1.32 1.30 1.21 1.15 1.22 1.34 1.36 1.48 1.55 1.54 1.64 1.82 2.01 1.97 1.90 1.85 1.74 1.63 1.67 1.79 1.82 1.80 1.74 1.76 1.73 1.73 1.59 1.40
1.60 1.64 1.62 1.53 1.41 1.40 1.41 1.36 1.40 1.43 1.46 1.43 1.36 1.31 1.31 1.36 1.48 1.53 1.48 1.40 1.40 1.39 1.37 1.40 1.45 1.48 1.57 1.70 1.78 1.78 1.81 1.75 1.61 1.46 1.49 1.59 1.65 1.68 1.71 1.67 1.68 1.70 1.64 1.49
1.40 1.54 1.57 1.49 1.45 1.32 1.39 1.39 1.39 1.41 1.39 1.42 1.44 1.41 1.38 1.44 1.56 1.65 1.70 1.67 1.63 1.56 1.46 1.38 1.47 1.45 1.54 1.65 1.68 1.68 1.65 1.59 1.46 1.30 1.31 1.44 1.50 1.57 1.62 1.59 1.57 1.56 1.50 1.41
1.57 1.61 1.55 1.45 1.50 1.53 1.49 1.49 1.47 1.48 1.38 1.33 1.38 1.46 1.55 1.59 1.67 1.73 1.75 1.70 1.60 1.54 1.46 1.36 1.29 1.27 1.35 1.50 1.61 1.59 1.56 1.52 1.47 1.31 1.29 1.44 1.53 1.62 1.59 1.54 1.54 1.54 1.44 1.42
1.57 1.52 1.42 1.33 1.35 1.37 1.31 1.32 1.33 1.38 1.44 1.43 1.52 1.63 1.70 1.68 1.71 1.84 1.95 1.82 1.55 1.51 1.46 1.43 1.33 1.31 1.30 1.43 1.53 1.52 1.52 1.53 1.57 1.46 1.41 1.45 1.51 1.57 1.52 1.46 1.45 1.44 1.44 1.48
1.50 1.48 1.48 1.44 1.40 1.30 1.18 1.17 1.25 1.34 1.43 1.53 1.61 1.71 1.77 1.80 1.84 1.84 1.78 1.82 1.70 1.71 1.61 1.48 1.41 1.39 1.38 1.39 1.41 1.46 1.48 1.51 1.62 1.58 1.51 1.52 1.59 1.63 1.62 1.55 1.50 1.45 1.44 1.48
1.46 1.50 1.47 1.47 1.50 1.43 1.30 1.25 1.22 1.31 1.41 1.44 1.53 1.72 1.81 1.79 1.87 2.06 1.87 1.57 1.50 1.58 1.58 1.55 1.52 1.43 1.33 1.21 1.31 1.43 1.46 1.50 1.53 1.49 1.39 1.37 1.41 1.46 1.46 1.38 1.35 1.35 1.35 1.35
1.56 1.51 1.50 1.51 1.51 1.42 1.38 1.37 1.34 1.36 1.32 1.28 1.36 1.54 1.75 1.85 1.80 1.72 1.72 1.63 1.46 1.37 1.30 1.35 1.35 1.31 1.32 1.26 1.32 1.41 1.44 1.48 1.47 1.38 1.32 1.31 1.34 1.35 1.33 1.30 1.29 1.30 1.32 1.35
1.59 1.53 1.47 1.47 1.51 1.49 1.42 1.42 1.48 1.45 1.35 1.33 1.31 1.36 1.48 1.65 1.76 1.62 1.43 1.37 1.31 1.17 1.11 1.12 1.10 1.13 1.14 1.15 1.18 1.28 1.42 1.53 1.50 1.36 1.24 1.26 1.27 1.26 1.21 1.18 1.22 1.31 1.36 1.36
1.59 1.57 1.52 1.47 1.43 1.43 1.42 1.47 1.62 1.61 1.61 1.66 1.55 1.44 1.48 1.49 1.50 1.54 1.45 1.30 1.21 1.11 1.00 1.04 1.03 1.01 1.02 1.10 1.12 1.15 1.27 1.45 1.50 1.41 1.27 1.28 1.26 1.25 1.26 1.24 1.19 1.21 1.26 1.26
1.62 1.58 1.53 1.50 1.44 1.37 1.44 1.55 1.67 1.72 1.79 1.87 1.88 1.73 1.61 1.47 1.44 1.45 1.43 1.38 1.25 1.14 1.08 1.06 1.02 1.00 1.01 1.03 0.99 0.96 1.05 1.19 1.26 1.31 1.36 1.37 1.38 1.39 1.35 1.29 1.20 1.15 1.16 1.17

GEFSNGP_prec_meanprecacc_306.txt.gz
Total_Precipitation_Accumulation
0.18 0.25 0.28 0.32 0.28 0.21 0.18 0.17 0.30 0.38 0.54 0.67 0.67 0.77 1.02 0.87 0.76 0.68 0.67 0.58 0.55 0.64 0.80 0.91 0.93 0.93 1.02 1.16 1.30 1.44 1.57 1.71 1.96 2.24 2.10 1.85 1.79 1.74 1.69 1.77 1.91 2.22 2.37 2.46
0.16 0.22 0.26 0.28 0.29 0.24 0.20 0.18 0.18 0.30 0.49 0.58 0.69 0.74 0.82 0.83 0.86 0.84 0.77 0.75 0.75 0.91 0.95 1.00 1.07 1.02 0.98 1.03 1.13 1.34 1.49 1.62 1.80 1.92 1.76 1.59 1.47 1.50 1.54 1.64 1.82 2.00 2.13 2.25
0.29 0.25 0.29 0.34 0.30 0.28 0.24 0.29 0.28 0.37 0.49 0.55 0.77 0.75 0.75 0.91 0.99 0.92 0.76 0.81 0.86 0.92 1.07 1.02 1.01 1.00 1.01 1.08 1.27 1.46 1.51 1.54 1.67 1.77 1.75 1.65 1.48 1.50 1.57 1.67 1.79 1.87 1.91 1.96
0.45 0.47 0.56 0.43 0.38 0.35 0.32 0.37 0.38 0.42 0.49 0.60 0.78 0.78 0.67 0.72 0.77 0.85 0.88 0.96 0.94 0.94 1.00 0.95 0.91 1.01 1.04 1.04 1.28 1.51 1.55 1.59 1.74 1.90 1.90 1.85 1.79 1.76 1.86 1.92 1.90 1.90 1.93 1.94
0.65 0.63 0.55 0.53 0.52 0.53 0.60 0.76 0.68 0.60 0.57 0.63 0.64 0.73 0.81 0.70 0.64 0.76 0.87 1.07 1.12 1.03 1.09 1.13 1.17 1.23 1.25 1.22 1.40 1.62 1.72 1.77 1.85 2.00 2.06 2.09 2.17 2.21 2.26 2.24 2.11 2.08 2.15 2.18
0.73 0.81 0.80 0.76 0.65 0.60 0.78 1.25 1.11 0.87 0.74 0.70 0.71 1.04 1.19 1.00 0.83 0.85 0.86 1.05 1.26 1.23 1.08 1.14 1.19 1.30 1.49 1.56 1.66 1.75 1.90 2.04 2.07 2.21 2.33 2.29 2.39 2.52 2.64 2.68 2.58 2.60 2.46 2.30
0.80 0.90 0.96 0.88 0.67 0.71 1.31 1.67 1.31 1.10 1.03 0.94 1.01 1.05 1.11 0.99 0.91 0.92 0.90 0.99 1.14 1.35 1.23 1.18 1.28 1.44 1.65 1.78 1.95 2.02 2.11 2.18 2.21 2.36 2.51 2.63 2.83 3.02 3.04 2.98 2.99 2.89 2.61 2.48
1.00 1.23 1.31 0.88 0.85 1.18 1.49 1.30 1.31 1.35 1.45 1.39 1.17 0.95 0.96 1.02 0.92 0.90 0.90 0.94 0.97 1.06 1.18 1.26 1.36 1.64 1.82 1.85 1.92 2.06 2.18 2.29 2.43 2.53 2.54 2.66 3.02 3.16 3.16 3.13 2.99 2.82 2.67 2.46
1.24 1.43 1.20 0.99 1.11 1.17 1.29 1.36 1.40 1.47 1.53 1.38 1.17 1.03 1.03 1.06 0.96 0.88 0.85 0.92 0.96 1.00 1.12 1.30 1.49 1.74 2.03 2.12 2.06 2.03 2.15 2.31 2.48 2.62 2.82 3.01 3.17 3.15 3.08 3.05 2.93 2.77 2.64 2.42
1.44 1.45 1.18 1.15 1.21 1.17 1.25 1.31 1.42 1.37 1.32 1.29 1.23 1.08 1.06 1.01 0.88 0.84 0.87 0.91 0.95 1.04 1.15 1.35 1.57 1.78 2.07 2.05 1.97 2.02 2.05 2.17 2.29 2.37 2.45 2.60 2.85 2.82 2.69 2.66 2.72 2.71 2.67 2.54
1.67 1.67 1.57 1.52 1.47 1.37 1.28 1.25 1.26 1.30 1.24 1.27 1.28 1.24 1.07 1.03 0.97 0.86 0.88 0.93 1.00 1.13 1.33 1.44 1.60 1.73 1.78 1.77 1.80 1.83 1.85 1.92 1.95 2.00 2.08 2.18 2.28 2.40 2.39 2.40 2.39 2.41 2.40 2.37
1.97 1.79 1.73 1.93 1.77 1.60 1.40 1.32 1.35 1.34 1.28 1.30 1.33 1.37 1.19 1.09 1.07 0.97 0.94 0.99 1.14 1.26 1.36 1.49 1.72 1.90 1.89 1.84 1.90 1.94 1.87 1.83 1.81 1.85 1.90 1.92 2.01 2.06 2.09 1.99 1.88 1.79 1.74 1.72
1.76 1.65 1.62 1.69 1.67 1.55 1.42 1.41 1.52 1.56 1.47 1.35 1.34 1.35 1.24 1.12 1.11 1.07 1.04 1.09 1.22 1.25 1.29 1.44 1.59 1.71 1.84 2.01 2.12 2.16 2.08 1.97 1.89 1.81 1.82 1.84 1.86 1.94 1.96 1.88 1.72 1.55 1.44 1.37
1.79 1.74 1.74 1.64 1.60 1.49 1.38 1.42 1.52 1.48 1.49 1.39 1.36 1.34 1.25 1.13 1.14 1.20 1.17 1.21 1.31 1.35 1.38 1.48 1.57 1.65 1.73 1.98 2.19 2.25 2.19 2.08 1.92 1.80 1.75 1.74 1.77 1.81 1.90 1.99 1.91 1.72 1.49 1.30
2.12 2.00 1.87 1.83 1.77 1.64 1.44 1.41 1.45 1.42 1.34 1.35 1.39 1.44 1.38 1.32 1.29 1.29 1.25 1.21 1.33 1.41 1.47 1.53 1.58 1.60 1.72 1.88 2.02 2.05 2.00 1.89 1.75 1.70 1.71 1.71 1.77 1.78 1.75 1.80 1.79 1.75 1.58 1.38
2.09 1.97 1.82 1.82 1.81 1.77 1.65 1.56 1.54 1.53 1.44 1.36 1.39 1.41 1.44 1.47 1.39 1.33 1.27 1.26 1.37 1.39 1.38 1.50 1.61 1.60 1.69 1.89 1.97 1.97 1.96 1.93 1.76 1.68 1.76 1.81 1.80 1.81 1.78 1.85 1.83 1.77 1.59 1.38
1.97 1.96 1.81 1.65 1.64 1.68 1.61 1.54 1.50 1.52 1.49 1.44 1.37 1.30 1.27 1.28 1.37 1.37 1.29 1.21 1.27 1.38 1.40 1.51 1.58 1.58 1.69 1.87 2.04 2.00 1.93 1.89 1.78 1.67 1.70 1.82 1.87 1.85 1.81 1.83 1.79 1.78 1.64 1.45
1.65 1.70 1.67 1.58 1.46 1.44 1.45 1.42 1.46 1.48 1.49 1.45 1.38 1.33 1.33 1.37 1.52 1.61 1.59 1.45 1.44 1.44 1.41 1.44 1.48 1.53 1.62 1.74 1.80 1.80 1.83 1.78 1.65 1.49 1.52 1.62 1.69 1.73 1.77 1.73 1.74 1.74 1.68 1.53
1.44 1.59 1.62 1.54 1.51 1.37 1.43 1.42 1.43 1.45 1.43 1.47 1.47 1.43 1.39 1.46 1.58 1.70 1.75 1.71 1.67 1.59 1.49 1.41 1.49 1.48 1.58 1.69 1.70 1.70 1.68 1.62 1.50 1.34 1.34 1.48 1.54 1.60 1.66 1.63 1.61 1.59 1.53 1.44
1.60 1.65 1.60 1.49 1.55 1.59 1.55 1.54 1.53 1.54 1.43 1.37 1.41 1.49 1.57 1.60 1.68 1.75 1.77 1.73 1.64 1.58 1.49 1.39 1.31 1.30 1.38 1.52 1.64 1.62 1.59 1.56 1.51 1.34 1.32 1.47 1.56 1.65 1.62 1.57 1.58 1.57 1.48 1.45
1.61 1.57 1.48 1.37 1.39 1.42 1.36 1.37 1.40 1.51 1.57 1.50 1.56 1.66 1.73 1.70 1.73 1.86 1.98 1.85 1.58 1.53 1.48 1.45 1.35 1.34 1.33 1.46 1.56 1.55 1.55 1.55 1.60 1.49 1.44 1.48 1.54 1.60 1.56 1.51 1.49 1.47 1.47 1.51
1.56 1.54 1.53 1.50 1.46 1.36 1.22 1.21 1.30 1.40 1.53 1.62 1.68 1.76 1.81 1.84 1.86 1.86 1.80 1.84 1.72 1.73 1.62 1.49 1.43 1.42 1.41 1.42 1.43 1.49 1.50 1.53 1.65 1.61 1.54 1.55 1.63 1.67 1.67 1.61 1.56 1.51 1.50 1.51
1.53 1.56 1.52 1.52 1.55 1.48 1.34 1.29 1.27 1.36 1.46 1.50 1.58 1.77 1.86 1.84 1.92 2.09 1.90 1.59 1.51 1.59 1.59 1.57 1.54 1.46 1.36 1.23 1.32 1.45 1.49 1.52 1.56 1.53 1.44 1.41 1.43 1.48 1.48 1.40 1.38 1.39 1.39 1.38
1.63 1.58 1.55 1.55 1.55 1.47 1.42 1.40 1.39 1.41 1.36 1.32 1.40 1.59 1.81 1.91 1.84 1.74 1.74 1.65 1.48 1.39 1.32 1.37 1.38 1.33 1.33 1.27 1.34 1.43 1.46 1.50 1.49 1.41 1.35 1.33 1.35 1.37 1.35 1.32 1.31 1.31 1.34 1.38
1.65 1.58 1.51 1.51 1.56 1.54 1.47 1.47 1.54 1.50 1.40 1.36 1.33 1.37 1.50 1.68 1.78 1.64 1.45 1.38 1.32 1.19 1.12 1.14 1.12 1.15 1.16 1.17 1.20 1.30 1.46 1.57 1.55 1.40 1.28 1.29 1.29 1.28 1.23 1.20 1.24 1.33 1.38 1.39
1.66 1.63 1.58 1.53 1.47 1.48 1.47 1.53 1.68 1.67 1.66 1.70 1.58 1.46 1.49 1.50 1.51 1.56 1.46 1.31 1.22 1.12 1.01 1.05 1.04 1.03 1.04 1.12 1.15 1.18 1.30 1.48 1.54 1.45 1.30 1.30 1.28 1.27 1.27 1.26 1.21 1.23 1.28 1.29
1.72 1.66 1.60 1.56 1.51 1.41 1.47 1.59 1.71 1.76 1.81 1.89 1.89 1.74 1.62 1.48 1.46 1.47 1.45 1.40 1.28 1.15 1.10 1.07 1.03 1.02 1.03 1.05 1.01 0.99 1.09 1.24 1.31 1.35 1.39 1.40 1.41 1.41 1.37 1.31 1.22 1.16 1.17 1.18